GFSGBSN_prec_cloud_003.txt.gz
Cloud_Cover
100 100 0 0 0 1 78 100 100 100 100 100 100 100 100 100 100 100 100 100 100 100 100 100 100 100 16 60 60 74 82 100 98 100 95 86 86 95 87 88 100 96 99 100 100 100 84
70 98 0 0 0 0 8 60 100 100 100 100 100 100 100 100 100 100 100 100 100 100 100 100 100 99 24 100 100 100 81 100 100 84 96 95 88 99 88 95 100 100 100 94 90 38 100
5 8 5 0 0 0 0 58 100 100 100 100 100 100 100 100 100 100 100 100 100 100 100 100 100 100 100 100 100 100 0 44 100 100 72 100 100 100 100 100 100 92 91 87 100 94 86
0 0 0 0 0 0 0 76 100 100 100 100 100 100 100 100 100 100 100 100 100 100 100 100 100 100 100 100 100 19 0 100 100 100 100 100 100 100 100 100 83 31 6 18 87 100 100
0 0 0 0 0 0 0 91 100 100 100 100 100 100 100 100 100 100 100 100 100 100 100 100 92 96 100 96 78 100 100 100 100 100 100 100 100 97 90 79 98 100 12 5 5 5 47
0 0 0 0 0 0 2 78 100 100 100 100 100 52 49 91 40 100 100 100 100 95 80 54 73 87 54 89 16 40 100 100 88 100 100 100 100 98 100 96 50 2 1 3 5 4 5
0 0 0 0 0 0 76 100 100 100 100 100 87 2 56 100 14 76 78 98 19 5 2 67 58 99 7 74 5 5 92 5 89 13 88 95 100 100 70 5 0 5 3 3 5 23 5
0 0 0 3 0 0 63 58 75 35 100 87 5 4 60 19 46 97 90 20 4 2 20 100 99 11 5 8 58 100 11 1 4 5 24 2 0 0 8 73 11 5 2 2 0 5 3
0 0 0 0 0 0 38 6 0 40 100 7 12 5 23 10 100 76 5 0 0 0 5 18 1 1 1 0 1 0 0 1 0 0 0 0 2 2 20 34 4 5 3 4 4 18 62
0 0 0 0 5 0 1 0 2 100 80 4 1 0 33 78 40 4 3 0 0 0 0 0 0 0 0 0 0 0 0 0 0 1 0 0 0 0 0 5 64 76 18 5 55 42 16
0 0 0 0 5 0 4 0 37 100 27 0 24 60 14 6 5 2 4 5 4 0 0 0 0 0 0 0 0 4 3 2 5 16 2 5 5 5 6 58 42 6 5 0 0 0 0
0 0 2 0 5 1 1 0 53 100 4 70 44 3 88 38 8 0 5 4 0 0 1 3 0 2 5 6 5 5 4 4 0 0 0 0 2 0 0 0 0 0 0 0 0 0 0
2 0 1 0 1 13 1 3 100 73 39 21 34 98 61 5 0 2 5 4 0 5 16 8 5 11 6 5 3 2 1 0 0 0 0 0 0 0 0 0 0 0 0 0 0 2 0
0 0 0 1 4 23 0 7 100 6 5 94 100 96 58 1 0 5 5 5 5 9 21 34 43 7 4 0 0 0 0 0 0 0 0 0 0 0 0 0 0 0 0 0 0 2 0
0 0 0 9 5 51 3 69 96 20 96 100 100 29 5 5 6 24 10 17 2 34 78 36 6 10 5 1 0 0 0 0 0 0 0 0 0 0 1 2 2 0 0 0 0 0 0
0 0 44 16 89 5 69 95 50 100 100 94 58 8 52 22 28 66 46 34 22 53 70 62 25 5 5 0 0 0 0 0 0 2 4 5 5 1 0 0 0 0 0 0 0 0 0
0 1 16 38 16 75 100 100 40 100 100 10 5 22 36 38 73 46 43 100 76 14 85 50 43 5 2 0 0 0 0 0 2 4 1 0 0 0 0 0 0 0 0 0 0 2 2
89 2 4 37 0 99 79 100 76 100 100 41 5 66 10 76 29 25 77 96 84 91 61 44 8 5 5 5 0 0 4 0 0 0 0 0 0 0 0 4 4 0 0 0 0 0 10
56 8 96 1 100 85 100 100 100 100 100 90 56 55 56 84 75 71 66 64 89 89 30 8 5 1 0 5 2 0 2 0 0 0 0 0 2 5 6 5 5 0 0 0 0 4 0
48 39 18 75 100 100 100 100 100 100 100 55 16 29 56 39 21 35 62 60 96 60 56 12 5 5 1 5 4 5 5 4 3 1 2 5 5 5 5 4 0 3 3 0 0 0 0
100 5 100 100 100 100 100 100 100 100 91 26 90 98 99 88 99 96 78 100 99 76 50 96 42 5 5 5 5 5 4 5 5 5 5 5 5 1 0 0 0 0 0 0 0 0 4
98 71 100 100 100 100 100 100 100 100 28 57 94 100 100 80 15 7 62 63 95 91 100 69 5 5 5 5 5 5 4 5 5 5 5 1 36 1 0 0 0 0 0 0 5 5 5
68 16 100 100 93 100 100 100 100 100 29 62 83 100 100 41 90 88 88 74 70 100 79 5 5 5 5 62 14 5 5 5 5 5 5 10 27 5 5 8 5 5 5 5 5 5 5
100 100 97 100 100 100 100 100 100 86 100 100 100 100 99 96 97 46 5 10 77 77 55 8 24 15 42 67 12 5 5 5 5 5 6 67 20 8 5 5 16 10 37 5 5 5 3
100 46 99 100 40 100 100 100 100 100 97 100 39 100 100 100 97 11 33 88 99 82 6 6 9 57 7 5 6 30 35 14 5 19 7 16 16 51 5 5 32 98 96 5 5 46 5
5 78 100 100 88 100 100 100 100 100 100 100 100 100 100 100 59 100 99 81 51 8 66 19 18 67 65 60 8 6 5 16 24 15 22 46 12 5 72 14 5 97 5 5 9 100 100
92 100 100 100 100 100 100 100 100 100 100 100 100 91 38 84 99 100 100 100 81 99 18 19 33 13 54 91 100 100 83 8 24 52 35 71 35 13 91 5 38 100 100 100 100 100 100
100 100 100 100 100 100 100 100 100 100 100 100 100 99 29 99 100 100 100 100 100 100 46 37 12 63 30 37 53 63 51 60 95 98 95 98 66 82 67 68 93 100 100 100 99 100 60
100 100 100 100 100 100 100 100 100 100 100 100 100 100 93 100 100 100 100 100 100 100 100 69 98 99 49 29 38 74 100 100 100 100 100 100 94 90 98 100 100 100 92 82 58 9 7

GFSGBSN_prec_cloud_006.txt.gz
Cloud_Cover
5 20 6 100 5 0 0 47 100 100 100 100 100 100 100 100 100 100 100 100 100 100 100 100 100 100 55 100 18 52 50 100 100 100 97 100 100 97 98 100 100 100 98 100 100 100 100
51 100 100 100 12 5 3 0 71 100 100 100 100 100 100 100 100 100 100 100 100 100 100 100 100 99 29 99 99 96 96 100 100 100 100 100 100 100 100 100 100 100 98 100 100 100 100
46 53 13 36 0 4 1 0 0 96 100 100 100 100 100 100 100 100 100 100 100 100 100 100 100 100 82 98 74 100 99 100 100 100 97 100 99 100 100 92 100 100 94 99 89 92 96
0 5 0 0 1 5 2 0 0 86 100 100 100 100 100 100 100 100 100 100 100 100 100 100 100 95 42 63 100 92 16 51 100 100 100 100 100 98 89 100 100 90 84 100 98 100 100
1 5 0 1 5 5 3 0 0 100 100 100 100 100 100 100 100 100 100 100 100 100 100 100 99 40 99 98 100 100 56 100 100 98 100 100 100 62 100 100 93 56 82 82 92 72 16
1 0 0 0 5 3 2 0 11 100 100 100 100 100 100 100 100 100 100 100 100 98 100 97 16 49 100 100 100 100 100 100 100 100 100 100 100 100 100 98 100 51 24 8 23 43 22
0 0 0 0 0 5 3 0 73 100 100 100 100 99 72 76 100 100 99 80 30 27 5 57 15 13 26 41 96 26 94 100 80 100 99 67 69 100 100 85 15 5 5 61 5 2 5
0 0 0 4 0 0 0 0 100 100 90 57 81 83 50 98 100 100 100 98 5 26 90 82 100 65 72 99 36 0 4 45 73 100 100 98 88 100 100 100 47 0 0 2 5 5 4
7 4 2 5 0 2 0 0 100 33 6 0 98 36 26 98 100 95 74 61 7 5 63 99 97 100 100 100 100 92 39 68 90 99 100 65 88 96 53 1 21 4 2 3 3 4 2
75 4 8 53 5 5 1 0 12 3 0 0 73 3 29 100 62 100 25 1 2 27 35 83 30 86 36 23 80 96 79 16 26 55 15 8 0 0 1 5 3 1 3 5 3 4 20
83 5 88 100 5 1 3 0 0 0 0 27 67 0 27 9 14 5 0 0 0 5 2 0 0 0 0 0 0 4 4 5 5 0 0 2 0 0 0 0 0 0 4 52 55 61 41
76 56 100 100 75 15 5 0 0 0 1 92 3 0 92 91 65 0 0 0 0 0 0 0 0 0 2 0 0 0 0 0 0 0 2 2 0 1 5 5 5 4 4 3 1 0 0
100 100 100 100 100 48 5 0 0 0 4 99 3 22 95 14 1 0 0 3 0 0 0 0 0 0 0 2 5 5 5 5 5 5 7 9 5 5 5 0 0 0 0 0 0 2 0
100 99 100 100 100 86 4 4 0 0 15 100 1 73 97 6 0 0 0 0 0 0 4 5 39 5 5 5 5 5 5 3 5 3 0 0 0 0 0 0 0 0 0 0 0 5 0
100 89 96 100 100 63 5 0 0 3 23 72 66 98 28 6 5 0 0 0 0 1 5 5 17 4 0 1 0 0 0 0 0 0 0 0 0 0 0 0 0 0 0 0 0 0 0
100 100 77 100 100 88 0 3 0 6 85 33 9 100 43 52 1 5 2 0 0 5 5 5 2 3 0 0 0 0 0 0 0 0 0 0 0 0 0 0 0 0 0 0 0 0 0
100 79 87 98 59 12 9 96 21 36 99 30 18 98 6 6 6 5 5 7 35 43 5 5 5 4 0 0 0 0 0 0 0 0 0 0 0 0 0 0 0 0 0 0 0 1 2
100 100 38 2 14 3 99 100 46 56 63 37 65 72 5 5 66 5 5 56 49 5 5 5 5 5 5 37 2 0 0 0 0 0 0 1 1 0 0 0 0 0 0 0 0 0 14
100 100 4 3 0 54 100 100 26 100 85 59 25 16 8 36 11 5 41 59 36 44 5 5 5 14 5 5 32 0 4 0 0 0 0 0 0 0 5 2 2 4 0 0 0 0 0
100 100 3 2 23 100 62 47 33 100 81 88 5 5 10 6 5 6 24 63 49 29 5 19 50 5 5 5 5 1 5 0 0 0 0 0 0 0 5 5 5 2 0 0 0 0 0
100 99 98 48 100 100 85 48 96 92 23 66 0 7 100 15 14 74 100 68 61 58 85 64 20 5 5 5 5 5 0 2 0 0 0 1 4 5 5 4 2 4 0 0 0 2 3
100 100 100 100 100 100 100 21 100 71 5 94 5 72 100 24 8 40 86 69 66 100 68 14 39 5 74 5 5 5 22 13 7 21 52 6 40 4 0 2 5 5 5 5 5 5 8
100 100 100 100 100 100 28 100 100 40 5 81 27 98 99 9 5 48 64 97 93 76 24 6 5 15 6 25 56 37 97 91 80 76 34 5 12 5 5 5 40 99 5 6 12 75 6
100 100 100 100 94 18 44 100 100 6 34 100 100 100 17 46 89 84 61 100 95 19 5 60 6 20 63 5 9 23 25 43 38 49 13 19 5 5 5 5 65 53 61 5 12 5 8
100 100 100 99 100 93 79 100 100 5 44 100 23 52 40 100 100 28 50 28 37 29 31 5 20 46 5 5 8 66 53 43 7 34 67 33 5 39 23 8 54 100 98 17 5 5 28
100 100 100 100 100 76 100 100 100 5 64 100 40 36 71 100 100 17 6 5 55 85 38 17 25 7 15 31 75 58 55 26 49 19 5 5 5 5 5 6 54 100 100 100 5 34 44
100 100 100 100 100 100 100 100 94 5 84 100 91 27 84 100 92 53 23 46 74 44 5 5 8 62 56 40 66 35 27 28 74 34 54 69 72 5 74 5 31 100 70 33 37 99 100
100 100 100 100 100 100 100 100 97 5 95 100 78 14 97 100 91 98 71 100 100 74 5 9 60 22 41 63 36 22 24 23 84 47 21 31 47 75 64 40 22 7 14 85 100 100 100
100 100 83 100 100 100 100 100 100 65 100 100 100 75 87 100 98 100 100 100 100 52 11 21 44 28 8 56 72 95 99 100 100 100 100 100 100 100 97 65 5 34 99 100 100 100 64

GFSGBSN_prec_cloud_009.txt.gz
Cloud_Cover
97 88 93 5 5 86 18 0 0 0 100 100 100 100 100 100 100 100 100 100 100 100 100 100 100 100 59 25 31 1 0 71 100 100 5 57 100 100 98 76 100 100 100 100 100 100 100
7 41 9 10 2 5 40 0 0 0 100 100 100 100 100 100 100 100 100 98 100 100 100 100 100 100 99 6 92 15 20 99 100 100 100 100 100 100 57 100 100 96 100 100 100 100 100
98 16 5 5 4 3 0 0 0 0 60 100 100 100 100 100 100 100 100 100 100 100 100 100 100 98 51 87 99 32 100 99 100 99 82 98 100 100 100 96 100 100 93 100 100 100 100
100 6 14 5 16 4 0 4 2 0 21 100 100 100 100 100 100 100 100 100 100 100 100 100 100 100 12 18 46 100 62 100 100 77 93 100 100 73 88 100 100 100 100 100 100 98 70
100 95 100 5 5 0 1 2 2 0 0 100 100 100 100 100 100 100 100 100 100 100 100 100 77 79 100 45 85 100 47 100 100 100 100 100 100 92 100 100 100 100 100 65 94 100 100
100 100 53 55 5 5 7 0 4 0 0 88 100 100 100 100 100 100 100 100 100 100 94 94 70 37 94 53 90 100 81 100 100 100 100 100 100 100 100 100 100 84 100 100 100 100 100
100 100 90 6 4 4 4 0 0 0 6 98 100 100 100 100 100 100 57 99 99 64 87 5 82 94 100 99 100 51 100 100 100 100 100 100 100 100 100 100 37 100 100 99 16 11 5
100 100 100 64 5 2 19 3 0 0 52 100 100 100 100 100 100 100 89 100 28 43 32 100 100 59 100 98 100 100 55 100 100 93 100 81 98 91 100 100 100 56 76 70 5 2 1
91 97 100 100 100 57 43 5 0 3 69 96 61 58 99 100 100 65 69 18 6 26 16 100 98 63 68 23 22 5 5 59 100 85 38 100 100 100 100 100 97 100 84 5 3 4 25
28 97 100 78 67 5 13 5 0 66 21 38 3 27 100 100 43 36 7 33 16 5 24 100 63 100 100 100 100 100 13 30 93 68 100 89 23 15 95 100 62 6 5 4 5 18 29
6 88 100 86 0 0 5 4 5 81 5 1 1 50 100 0 10 0 3 5 5 24 34 35 58 90 88 100 100 100 100 99 92 98 97 73 89 20 5 3 0 5 5 32 4 27 44
0 92 100 100 3 0 3 47 5 15 5 0 9 56 100 40 81 7 5 0 6 56 26 17 12 0 1 0 0 0 0 1 3 3 1 0 3 4 3 0 2 3 5 25 7 26 5
5 56 92 100 4 1 4 100 100 65 13 0 29 56 98 16 0 4 0 0 3 34 0 0 0 5 1 0 0 0 0 0 0 0 1 0 2 0 0 0 2 5 13 53 45 2 0
7 68 100 100 5 97 49 100 97 76 4 11 46 98 100 11 4 0 0 0 3 0 0 0 0 0 0 0 0 0 0 0 0 0 0 2 5 5 5 2 0 0 0 0 0 0 0
29 4 97 96 93 100 100 100 100 82 5 81 94 100 78 26 5 0 0 0 0 0 0 0 0 1 0 4 5 5 5 4 2 0 0 0 0 0 0 0 0 0 0 0 0 0 0
96 22 77 100 100 93 100 100 100 74 29 99 32 45 17 97 4 1 1 2 0 0 0 0 5 5 5 4 0 0 0 0 0 0 0 0 0 0 0 0 0 0 0 0 0 0 0
100 9 100 100 92 85 94 100 100 25 40 46 0 29 5 100 1 5 4 0 0 3 5 4 5 0 0 0 0 0 0 0 0 0 0 0 0 0 0 0 0 0 0 0 0 0 0
100 40 100 100 100 5 78 100 100 96 89 98 0 97 21 100 5 5 5 3 5 5 5 2 0 0 0 0 0 0 0 0 0 0 0 0 5 0 0 0 0 0 0 0 0 0 2
89 100 100 100 100 48 5 98 100 100 77 27 5 94 5 96 36 10 29 13 5 5 5 5 0 0 0 5 17 2 0 0 0 0 0 0 3 0 0 0 0 0 1 0 0 0 0
97 100 100 100 100 62 19 100 100 99 52 0 5 46 4 41 13 10 12 73 5 5 5 5 1 0 2 3 5 44 5 11 0 0 0 0 0 0 0 0 4 5 1 0 0 0 0
100 100 100 100 100 7 100 100 100 69 49 20 14 5 94 69 15 52 10 6 5 7 5 5 5 4 5 5 5 5 5 5 5 0 3 0 0 0 4 5 5 5 5 4 5 5 5
100 100 100 100 100 95 100 66 100 92 88 6 61 93 100 54 9 67 62 32 5 31 6 19 21 5 5 5 5 5 5 5 5 5 6 5 5 5 5 5 5 54 23 3 5 5 5
100 100 97 100 100 100 100 100 98 42 0 6 100 90 100 19 5 8 58 84 42 80 13 51 5 5 5 5 5 5 5 11 9 16 13 30 14 5 67 29 55 100 27 5 5 5 5
100 100 100 100 100 100 100 75 56 1 0 82 100 100 100 5 6 97 66 57 5 38 16 5 5 5 5 5 12 5 14 43 12 39 38 37 6 5 32 5 80 65 54 5 5 5 5
100 100 100 100 100 97 36 84 30 0 5 100 100 100 75 5 71 15 5 5 5 20 7 5 5 5 5 5 6 10 5 5 5 5 21 26 5 10 5 5 75 100 70 68 5 19 5
100 100 100 100 100 77 100 5 22 5 100 100 100 96 35 18 17 9 34 76 8 8 5 5 5 5 5 5 5 6 49 59 88 66 22 5 13 25 34 54 97 100 87 5 5 33 29
100 100 100 100 100 95 55 87 5 40 100 100 100 88 33 15 5 7 44 70 44 18 15 5 5 5 5 5 9 14 18 14 42 27 29 72 32 32 19 27 70 7 5 5 5 17 95
100 100 100 100 100 100 100 26 29 100 100 62 100 98 50 47 5 80 72 76 34 29 42 63 21 5 5 5 5 5 54 84 39 8 24 6 15 83 92 94 5 5 13 17 87 100 86
100 100 100 100 100 100 100 79 100 100 99 92 100 96 45 66 16 73 24 56 53 60 76 58 56 22 5 5 5 8 36 55 51 92 54 95 100 100 100 100 9 5 57 100 100 18 5

GFSGBSN_prec_cloud_012.txt.gz
Cloud_Cover
100 94 13 1 0 32 5 5 18 5 1 2 98 49 100 100 100 100 100 100 100 90 100 100 100 100 5 7 6 46 0 0 8 63 86 55 29 80 100 100 100 100 100 100 100 100 100
100 100 85 0 2 5 11 6 5 4 0 0 100 100 100 100 100 100 84 100 95 99 100 100 100 97 3 64 14 22 5 90 100 98 86 97 94 100 100 100 100 100 100 100 100 100 100
99 100 100 46 4 5 6 48 100 32 4 4 100 100 100 100 100 100 59 92 76 100 100 100 100 9 4 19 12 95 30 81 99 15 63 100 100 100 100 100 100 100 100 100 100 100 100
78 50 100 80 5 5 5 5 5 5 5 55 66 100 100 100 100 100 67 76 59 100 100 92 98 79 7 8 14 100 71 99 99 38 100 100 100 100 100 100 100 100 100 100 100 100 99
58 7 100 100 17 5 5 5 13 26 5 64 15 100 100 100 100 100 95 64 98 100 100 99 52 44 6 2 18 100 100 99 50 99 100 100 100 100 100 100 100 100 100 100 95 100 100
3 42 40 100 93 5 19 8 23 30 4 0 22 100 100 100 100 100 97 74 100 99 80 31 13 6 57 74 60 100 46 61 98 51 78 100 100 100 100 100 100 100 97 100 100 100 99
1 89 99 98 100 5 5 6 5 40 1 5 36 100 100 100 100 100 57 0 10 26 5 2 4 100 100 97 39 100 94 85 100 97 100 100 100 100 100 100 100 100 100 100 100 100 98
96 98 40 92 100 30 64 19 5 5 5 5 78 100 100 100 100 95 14 0 0 2 2 10 5 100 86 100 100 90 61 54 100 100 100 100 100 100 100 100 100 100 100 100 100 94 45
94 91 100 100 100 100 96 66 89 11 5 10 97 100 100 100 100 65 0 0 0 0 3 4 66 84 28 100 95 100 76 99 100 100 100 100 100 100 100 100 100 100 80 100 82 67 6
5 25 50 56 100 100 100 99 64 5 48 99 100 46 100 100 27 0 0 0 0 4 1 5 5 17 5 44 82 89 13 100 100 99 100 94 100 100 100 100 100 100 96 90 81 32 24
22 9 0 5 100 100 100 100 82 100 100 100 100 98 100 1 0 0 0 0 0 0 3 26 56 39 96 51 50 79 100 93 100 100 87 92 100 100 46 100 100 64 17 8 5 5 5
5 3 4 0 100 100 99 100 100 100 100 100 100 73 100 68 3 0 0 0 0 0 5 5 57 72 45 100 100 100 100 100 100 100 100 92 91 15 57 51 5 3 5 5 65 16 0
96 3 19 1 100 100 100 19 100 100 100 100 100 40 100 2 0 0 3 0 0 2 5 5 10 9 5 5 9 87 73 100 100 87 47 7 26 9 3 5 4 5 5 5 5 3 5
72 13 76 13 47 100 100 36 98 99 100 100 100 97 100 1 0 0 0 0 0 2 0 5 2 0 0 0 0 0 0 0 1 0 0 1 0 3 5 2 1 3 5 16 5 3 0
100 96 69 100 93 100 100 100 100 100 40 100 100 100 100 4 0 8 0 0 0 0 0 0 0 0 0 0 0 0 0 0 0 0 1 0 0 0 5 20 69 57 6 0 0 0 0
100 74 100 100 100 100 100 100 100 100 91 34 100 86 2 0 4 5 5 0 0 0 0 0 0 0 0 0 0 2 2 3 4 5 5 2 3 3 0 0 0 0 0 0 0 0 0
99 100 100 99 38 100 100 100 99 88 9 10 4 0 16 4 4 27 5 0 0 0 0 0 0 0 5 5 6 5 5 2 1 0 0 0 0 0 0 0 0 0 0 0 0 0 0
98 100 100 100 37 100 100 100 5 55 68 64 0 2 9 5 1 97 3 5 3 0 5 0 5 5 5 7 1 0 0 0 0 0 0 0 0 0 0 0 0 0 0 0 5 5 0
49 100 100 100 89 96 100 100 7 90 82 69 1 18 13 5 13 100 10 5 5 5 5 5 5 1 4 0 0 0 0 0 0 0 0 0 0 1 1 0 0 0 2 5 5 5 5
5 90 100 100 100 100 100 100 47 100 100 8 24 63 1 4 20 94 15 5 5 8 5 5 4 0 0 0 4 5 0 0 0 0 0 0 0 0 3 5 5 5 8 39 5 5 2
5 81 14 79 100 100 100 99 100 99 74 90 40 27 0 73 17 88 6 5 7 68 47 5 5 0 0 3 5 5 5 0 4 4 5 4 5 5 5 5 6 45 88 6 5 4 0
32 5 5 100 100 100 100 96 100 100 76 13 12 59 6 77 100 68 8 48 93 63 32 5 5 5 5 5 3 3 5 5 5 5 5 8 38 43 40 5 45 100 59 5 5 1 5
6 5 8 100 100 100 99 100 100 100 72 9 82 100 13 18 82 5 78 100 100 52 8 5 5 5 5 2 0 0 3 5 5 5 5 15 5 5 5 9 97 100 25 5 5 2 5
95 43 100 100 100 100 71 100 100 99 99 82 100 84 5 50 84 74 77 67 66 11 32 5 5 5 5 5 1 4 5 5 5 5 5 5 5 5 5 6 99 100 26 2 0 2 5
100 100 100 100 100 100 100 100 100 84 26 93 99 8 29 100 98 66 6 30 39 7 5 5 5 5 5 5 5 5 8 8 5 5 5 5 5 6 24 5 54 94 7 15 5 5 5
100 100 100 100 100 100 100 100 99 72 5 100 33 11 14 100 100 70 5 54 58 18 22 5 10 5 5 5 5 5 5 5 5 5 5 5 9 15 8 67 71 85 25 5 12 13 100
100 100 100 100 100 100 100 100 75 7 56 32 50 8 82 100 87 5 6 75 98 43 5 6 5 15 5 20 94 46 13 6 5 5 72 25 38 39 8 35 16 5 27 57 78 92 100
100 100 99 79 100 100 100 97 52 5 82 8 5 10 100 100 55 5 5 59 48 7 6 16 12 50 8 54 55 16 52 36 11 5 5 12 13 36 9 64 37 5 43 100 79 70 55
100 100 100 100 100 100 100 100 95 19 5 6 33 87 100 100 78 44 51 100 55 26 11 5 66 96 94 82 46 38 92 93 8 30 5 5 5 6 18 5 5 5 86 21 5 39 95

GFSGBSN_prec_cloud_015.txt.gz
Cloud_Cover
100 100 100 100 100 100 100 61 82 1 0 5 0 4 100 100 100 100 44 7 100 98 80 97 34 51 70 5 0 4 5 0 0 3 100 100 12 80 100 100 100 100 100 98 100 100 100
100 100 100 100 100 77 98 82 6 0 5 5 1 5 100 100 100 100 100 69 100 64 90 100 75 9 46 0 40 19 22 1 2 42 54 100 74 92 100 95 100 100 100 100 100 100 97
100 100 100 100 100 100 98 27 5 3 5 5 5 3 100 64 100 100 100 100 100 34 96 96 31 5 0 5 2 85 87 57 100 89 95 100 100 96 93 100 100 100 100 100 100 100 100
100 100 100 100 100 100 70 5 5 5 5 5 4 5 69 100 100 100 98 100 99 54 0 93 16 0 56 40 2 56 5 73 68 99 94 100 64 92 100 100 100 100 100 100 100 100 100
100 100 95 92 100 100 94 5 6 12 39 5 5 10 0 100 100 100 100 80 5 14 0 0 5 0 1 8 7 5 14 100 58 18 91 100 40 99 100 100 100 100 100 100 100 100 100
69 48 100 96 100 100 100 34 8 100 34 35 5 3 5 100 100 100 100 54 1 28 13 0 0 0 0 57 36 90 31 84 34 92 71 98 100 100 100 100 100 100 100 100 100 100 82
5 5 8 100 100 100 100 100 100 96 27 5 5 5 5 85 98 97 57 4 3 4 0 0 0 0 98 66 0 55 100 71 100 100 100 100 100 100 100 100 100 100 100 100 99 99 100
72 81 43 94 100 100 96 100 93 100 100 25 10 5 85 53 100 100 20 5 5 5 0 0 0 0 5 86 100 26 100 92 100 99 100 100 100 100 100 100 100 100 100 100 100 99 100
95 66 5 84 99 100 100 100 93 100 95 7 94 5 96 100 100 75 52 11 5 2 0 0 0 3 5 5 76 76 100 100 100 100 100 100 100 100 100 100 100 100 100 100 100 100 83
100 100 100 100 100 100 100 100 99 35 36 5 5 93 100 100 100 100 100 79 5 4 1 0 0 0 0 5 49 100 16 76 100 100 100 97 100 100 100 100 100 100 100 100 94 36 29
27 99 29 5 9 31 100 100 100 69 100 28 37 100 100 100 100 100 100 100 5 5 5 56 5 2 0 1 4 36 10 9 100 100 100 100 100 100 100 100 99 100 99 99 100 15 100
40 84 83 4 4 4 7 79 100 100 100 100 100 100 100 100 100 100 100 100 31 5 36 3 0 3 1 5 0 4 27 38 90 100 77 100 99 99 97 97 100 100 100 99 28 99 58
94 97 84 6 1 0 5 43 100 100 100 100 100 100 100 100 100 100 100 100 5 5 2 0 0 5 2 4 6 87 100 100 88 81 93 90 96 100 100 95 100 100 96 64 62 100 17
100 99 29 24 2 0 0 89 100 100 100 100 100 100 100 100 100 100 100 100 75 5 17 0 0 0 5 5 0 15 90 100 100 100 100 100 100 100 97 46 98 8 93 30 100 86 100
100 100 90 5 5 1 1 40 100 100 96 96 100 100 100 100 80 100 100 100 98 10 5 0 0 0 4 3 5 5 5 96 36 6 100 92 100 99 18 5 5 83 5 4 32 43 1
100 100 98 60 32 2 1 84 100 100 89 93 93 100 100 100 100 100 100 100 86 5 2 0 0 0 5 1 0 0 5 71 4 4 4 29 89 5 5 7 5 5 8 3 0 0 3
100 100 100 99 80 13 13 87 100 100 98 100 100 100 100 100 100 100 100 100 32 0 0 0 0 0 5 5 0 1 77 2 0 2 5 5 9 16 5 4 8 4 0 0 1 9 4
100 100 100 100 100 100 80 79 100 100 100 100 100 100 100 100 100 100 100 100 5 5 0 0 0 0 0 5 4 5 14 5 5 12 5 4 2 4 2 1 0 0 5 4 0 0 0
100 100 100 100 100 100 100 100 100 100 100 100 100 100 100 100 100 100 100 65 4 5 0 0 0 0 5 7 13 5 5 3 4 0 0 0 0 5 5 0 0 0 0 0 0 0 4
100 100 100 100 100 100 51 100 100 100 100 100 100 100 100 100 100 74 5 5 5 2 5 3 4 5 86 61 33 5 5 0 0 0 0 0 0 2 5 92 11 0 3 5 5 5 5
100 100 100 12 100 100 95 100 100 100 61 100 100 97 100 100 31 87 5 5 4 1 5 5 4 68 56 6 5 5 5 0 0 0 0 0 0 2 5 1 3 6 19 52 5 5 5
100 96 100 29 99 94 100 100 100 100 100 96 57 69 52 11 5 92 11 3 5 9 5 3 23 98 51 5 4 9 4 5 3 0 0 0 5 2 0 1 9 48 32 5 3 5 5
100 99 82 74 42 16 100 100 100 40 15 50 96 86 94 100 6 34 6 5 16 53 4 5 76 100 11 5 5 4 4 2 5 5 5 5 4 5 5 5 5 85 5 5 0 0 0
27 81 83 5 5 95 100 100 100 76 5 7 100 100 73 61 32 5 6 79 49 63 8 22 63 62 6 5 5 5 5 4 3 0 5 0 5 5 9 5 57 8 0 0 5 5 2
6 82 7 5 7 25 100 100 100 100 100 72 100 76 100 100 22 5 60 14 83 27 65 6 63 27 19 5 5 5 5 8 2 4 1 2 5 5 20 5 5 5 11 5 5 5 5
44 3 5 5 100 100 100 100 100 99 100 87 100 91 100 100 7 40 45 100 66 21 6 7 97 89 24 5 5 5 5 5 3 5 5 5 5 5 5 51 63 7 5 6 5 5 28
8 5 5 100 100 100 100 100 100 99 100 100 91 99 100 24 14 30 52 34 91 42 9 34 68 81 20 20 91 5 5 5 5 5 63 5 44 40 5 35 23 47 34 81 48 6 5
100 96 100 100 100 100 100 100 100 97 100 88 98 100 100 18 57 46 41 98 26 44 72 39 63 92 39 29 44 5 31 5 5 5 5 19 16 34 11 63 81 76 57 53 5 5 14
100 100 100 100 100 100 100 100 100 100 100 100 98 100 100 27 10 97 100 95 46 38 15 5 6 27 6 8 46 17 90 90 5 60 49 54 43 14 5 5 6 13 5 5 5 5 5

GFSGBSN_prec_cloud_018.txt.gz
Cloud_Cover
100 100 100 100 100 100 100 100 100 100 100 100 100 57 5 5 98 96 100 100 97 64 100 10 11 0 0 0 0 0 2 5 0 0 44 100 89 100 85 100 97 99 91 98 92 100 100
100 100 100 100 100 100 100 100 100 100 100 100 94 5 4 0 63 100 100 100 84 90 84 0 0 0 0 0 4 0 4 25 2 1 5 100 79 99 93 98 83 98 100 100 100 100 100
100 100 100 100 100 100 100 100 100 100 100 100 27 19 5 5 51 100 98 100 31 69 2 0 0 0 0 4 4 0 5 6 100 98 31 100 77 59 79 100 92 100 100 100 100 100 100
100 100 100 100 100 100 100 100 100 100 100 100 100 87 5 5 6 86 61 100 62 24 1 0 0 0 0 0 0 0 1 12 100 92 57 97 85 100 87 98 100 100 100 100 100 100 100
100 100 100 100 100 100 100 100 100 100 100 100 100 99 70 16 12 70 53 0 0 5 0 0 0 0 0 0 39 0 3 82 8 99 18 34 70 91 68 82 100 100 100 100 100 100 100
100 100 100 100 100 100 100 100 100 100 100 100 100 100 100 100 56 5 9 0 4 0 0 0 0 0 0 0 0 0 2 79 5 51 3 62 77 95 100 100 100 100 100 100 100 34 85
100 100 100 100 100 100 100 100 100 100 100 100 100 100 100 100 52 45 19 4 1 5 0 1 5 0 1 5 44 3 68 18 18 77 5 44 97 100 100 100 100 100 100 100 100 76 100
100 100 100 100 100 100 100 100 100 100 100 100 100 100 100 100 95 100 72 4 8 3 5 5 4 0 0 0 0 12 4 6 70 80 100 98 91 100 100 100 100 100 100 100 100 81 84
100 100 100 100 100 100 100 100 100 100 100 100 100 100 100 100 100 98 65 5 5 5 29 18 2 0 0 0 0 43 15 79 95 77 100 99 84 100 100 100 100 100 100 97 82 99 100
100 100 100 100 100 100 100 100 92 100 100 99 100 100 100 99 100 80 5 5 16 66 63 42 0 0 0 0 0 44 79 73 99 100 100 91 100 98 100 100 100 100 80 79 100 96 99
94 30 84 100 100 100 100 100 100 100 100 100 100 100 100 82 100 53 24 23 8 67 7 5 5 0 0 0 0 3 23 74 99 50 100 98 97 100 100 100 86 96 96 20 100 78 100
92 100 80 16 38 95 94 100 100 100 100 100 100 100 100 100 88 5 5 24 51 100 86 5 14 0 4 1 3 56 9 0 43 98 72 99 79 100 93 100 100 76 37 59 68 100 100
96 100 89 73 71 90 14 40 100 100 100 100 100 100 100 100 40 95 9 35 38 100 12 41 5 5 4 5 5 3 23 0 46 100 57 100 100 96 100 100 80 64 96 69 100 100 99
45 100 100 43 17 20 59 5 10 64 100 100 100 100 100 100 100 100 100 98 43 100 6 44 5 5 5 94 5 0 5 0 37 100 99 99 99 75 76 100 100 85 96 100 100 100 100
100 92 100 100 76 9 89 1 5 5 78 100 100 100 100 100 100 100 100 75 100 100 23 61 6 5 5 100 5 8 6 47 100 100 55 100 86 100 100 100 100 14 100 84 92 93 60
99 100 100 100 100 100 100 3 0 2 94 100 100 100 100 100 100 93 93 64 100 100 100 96 5 5 24 80 4 5 48 4 63 99 99 100 100 66 57 34 18 13 42 5 5 5 17
46 100 100 100 100 100 96 14 0 22 100 100 100 89 100 100 83 86 37 100 100 95 97 100 5 17 5 82 2 2 28 86 79 99 62 100 100 100 32 81 6 8 5 5 5 61 22
55 100 100 100 100 100 91 48 5 29 100 100 100 100 100 97 60 59 86 100 100 100 100 54 25 51 3 100 5 5 70 97 22 5 5 27 66 66 61 89 6 7 78 20 6 1 0
69 100 100 100 100 100 100 100 11 63 100 100 97 90 94 100 53 52 100 100 100 100 99 80 4 6 3 91 91 5 10 5 1 3 3 5 5 5 7 68 6 4 0 0 84 2 0
100 100 100 100 100 100 100 100 45 100 100 100 98 28 100 87 88 86 100 100 100 91 96 85 10 5 5 2 5 5 26 48 31 38 5 5 3 0 0 9 71 93 0 1 1 0 0
100 30 88 60 99 100 100 100 98 100 100 100 87 15 78 99 60 99 100 100 100 100 100 89 7 0 4 0 5 15 33 55 32 3 1 0 0 0 1 21 68 96 37 41 4 0 0
100 100 54 100 50 100 100 100 88 100 100 100 100 100 97 100 100 100 100 100 100 100 99 28 39 5 5 5 5 6 94 7 4 0 0 0 0 0 0 0 4 4 0 0 0 3 5
100 98 75 78 70 99 98 100 99 100 100 100 49 100 100 100 100 100 100 100 100 100 100 5 5 40 19 78 59 14 15 99 6 5 4 4 4 1 0 5 5 5 0 0 3 5 1
100 91 100 92 96 96 88 100 100 100 100 92 3 52 100 100 100 100 100 100 100 100 100 20 5 100 14 5 25 45 5 15 5 5 5 2 5 3 5 5 5 0 0 0 5 2 0
100 100 100 100 100 67 5 5 99 100 100 80 30 46 96 44 80 100 100 100 5 80 100 68 5 97 5 5 23 31 14 5 5 5 3 5 5 5 62 5 5 4 0 0 5 1 5
90 75 65 96 100 32 58 96 100 100 99 100 41 42 100 6 4 6 22 76 54 100 100 5 26 38 1 37 48 41 7 5 5 5 5 5 5 5 5 3 5 6 5 5 5 5 30
99 77 44 51 32 100 46 98 100 100 100 99 91 82 91 100 9 60 100 92 57 100 86 20 85 6 2 33 91 48 18 5 5 5 5 5 6 38 5 33 5 6 7 7 30 29 5
100 47 5 32 100 20 5 92 100 100 100 100 88 100 100 100 66 100 100 100 71 94 100 21 52 6 1 36 38 38 44 5 5 5 5 5 6 35 6 73 61 10 59 79 13 9 18
46 21 5 7 6 5 18 100 100 100 100 100 100 100 100 100 21 97 100 11 62 100 100 34 96 14 5 5 45 25 91 89 5 21 5 8 8 6 5 6 56 39 59 6 54 46 5

GFSGBSN_prec_cloud_021.txt.gz
Cloud_Cover
100 100 100 100 100 100 100 100 100 100 100 100 100 100 100 100 100 56 100 100 100 45 77 8 0 0 2 0 0 0 0 0 14 1 0 96 57 66 100 100 95 100 100 89 100 100 100
100 100 100 100 100 100 100 100 100 100 100 100 100 100 100 100 100 86 36 100 100 0 3 0 0 0 16 0 0 0 0 0 24 3 2 81 65 80 100 100 100 100 100 89 100 100 100
100 100 100 100 100 100 100 100 100 100 100 100 100 100 100 100 100 100 79 36 99 0 0 0 0 0 0 0 0 0 0 0 100 96 60 11 73 100 90 92 100 82 99 100 100 100 100
100 100 100 100 100 100 100 100 100 100 100 100 100 100 100 100 100 100 64 10 0 0 0 0 0 0 1 0 0 0 0 8 14 6 13 8 100 100 62 61 100 100 100 100 100 100 41
100 100 100 100 100 100 100 100 100 100 100 100 100 100 100 100 100 100 61 10 2 2 0 0 0 0 4 0 0 0 0 3 0 11 24 10 13 25 58 100 36 100 100 100 100 100 93
100 100 100 100 100 100 100 100 100 100 100 100 100 100 100 100 100 100 82 5 5 0 0 0 0 0 0 0 0 0 1 1 1 2 4 30 64 62 100 60 98 100 100 100 100 100 100
66 100 100 100 100 100 100 100 100 100 100 100 100 100 100 100 100 100 93 55 5 5 0 3 0 0 0 0 0 0 0 0 1 60 48 5 19 61 92 100 100 100 100 100 100 79 100
98 90 88 100 100 100 100 100 100 100 100 100 100 100 100 100 100 100 100 6 37 1 0 14 2 0 0 0 0 0 0 0 2 4 1 6 50 69 78 99 82 100 98 100 100 90 13
100 97 99 100 100 100 100 100 100 100 100 100 100 100 100 100 100 100 99 8 22 0 0 8 2 0 0 0 0 0 0 6 4 98 87 80 46 100 100 97 90 100 66 100 100 100 92
100 100 100 73 100 100 100 100 100 100 100 100 100 100 100 100 100 100 88 100 1 5 1 94 2 0 0 0 0 0 3 10 6 78 19 42 40 73 99 62 39 75 99 90 62 66 95
100 100 73 99 42 100 100 100 100 100 100 100 100 100 100 100 100 100 99 5 0 35 5 42 3 0 0 0 1 0 14 100 6 45 18 98 100 94 96 80 6 98 82 100 100 97 99
100 100 90 100 100 100 100 100 100 100 100 100 100 100 100 100 100 65 46 36 56 68 72 5 4 0 0 0 5 0 3 9 3 50 45 28 100 100 100 99 100 88 91 82 96 99 100
100 100 99 100 100 100 37 98 100 100 100 100 100 100 100 100 100 82 100 86 18 63 11 4 2 5 5 2 7 4 79 0 24 67 28 80 100 99 100 100 80 100 92 80 83 94 95
100 100 100 88 91 100 100 74 96 20 100 100 100 100 100 100 86 100 100 48 99 5 80 2 5 4 5 0 1 5 100 3 0 0 99 100 72 100 100 100 100 83 83 96 89 100 100
64 93 100 100 56 100 100 100 100 36 100 100 100 100 100 100 100 100 100 98 4 100 72 6 5 6 2 3 8 4 17 10 2 0 13 84 12 96 100 100 100 100 61 96 100 100 100
100 100 100 100 100 18 100 100 95 46 30 100 100 100 100 100 100 100 96 35 36 100 99 17 15 46 5 5 28 92 3 0 0 0 6 41 26 4 100 99 43 100 98 76 44 99 100
14 100 94 63 100 57 90 100 100 99 57 100 100 100 100 100 48 99 74 56 100 98 8 16 24 30 6 31 74 13 1 46 28 98 74 89 83 100 100 95 25 50 29 16 3 5 32
38 59 100 100 100 100 100 100 100 42 53 100 100 100 100 100 69 71 71 36 100 84 16 81 64 47 39 91 99 14 0 100 98 8 100 100 100 65 95 36 6 48 27 94 5 5 6
5 9 100 48 100 100 100 100 100 39 100 100 100 100 100 100 84 17 19 31 100 65 99 100 100 100 8 100 98 30 3 23 97 90 82 5 97 100 98 8 5 6 12 77 73 32 5
5 23 43 100 100 100 100 100 100 93 100 100 100 100 100 97 80 66 91 77 100 46 80 99 100 83 75 100 100 58 1 54 5 5 4 3 4 36 8 5 10 71 8 21 17 3 1
22 8 5 91 44 100 82 100 100 98 100 100 100 96 98 100 70 9 54 100 98 5 96 100 100 100 96 13 100 100 32 1 5 5 26 36 10 6 5 1 6 12 5 90 62 2 1
36 45 5 5 84 100 29 100 100 100 82 100 100 66 92 48 87 0 13 100 100 100 100 69 100 83 5 71 3 5 2 5 5 5 5 5 5 0 0 0 0 4 4 3 5 0 3
52 52 15 65 100 99 75 100 100 100 100 100 100 96 100 15 19 0 1 96 98 100 100 100 100 100 42 4 1 1 3 1 39 20 20 4 0 1 0 0 0 0 0 0 0 0 0
47 100 5 9 54 96 100 100 95 99 100 100 100 100 100 5 9 41 60 100 100 100 100 100 100 98 100 7 5 5 76 28 40 100 95 0 2 5 5 3 3 0 0 0 0 0 0
22 67 5 5 5 7 96 100 100 72 100 100 100 98 100 93 97 100 100 100 100 100 100 100 100 100 98 5 5 48 53 9 8 99 85 78 5 5 5 5 5 5 2 0 0 0 0
6 96 42 6 34 47 100 100 100 92 100 100 100 100 100 100 11 98 100 100 100 100 100 100 100 100 38 66 5 5 5 5 6 5 5 4 5 5 5 5 24 57 5 0 0 2 5
10 93 48 75 50 91 100 100 58 10 95 100 100 100 100 100 96 9 80 66 100 100 100 100 100 100 60 97 86 6 6 5 5 5 5 8 6 5 11 15 27 33 5 5 5 4 5
83 100 100 100 90 100 91 74 5 20 100 100 100 100 100 100 98 9 6 4 52 19 4 14 93 100 10 71 18 33 6 5 5 5 5 5 26 25 51 79 36 5 14 5 5 5 22
96 99 100 100 100 100 50 100 13 33 100 100 100 100 100 100 67 41 7 98 7 5 90 57 100 56 98 99 80 63 96 76 5 5 5 5 5 5 5 5 5 10 5 5 59 99 56

GFSGBSN_prec_cloud_024.txt.gz
Cloud_Cover
100 100 100 100 100 100 100 100 100 100 100 100 100 100 100 100 100 100 100 100 100 100 14 3 13 0 0 0 0 0 0 0 3 3 0 11 8 81 62 93 100 100 79 98 100 100 100
100 100 100 100 100 100 100 100 100 100 100 100 100 100 100 100 100 100 100 100 98 68 5 2 4 0 0 0 0 0 0 0 3 3 5 0 34 5 100 100 100 51 81 100 100 100 100
100 100 100 100 100 100 100 100 100 100 100 100 100 100 100 100 100 100 100 100 100 51 5 5 5 0 0 0 0 0 0 0 2 0 5 2 41 5 100 100 100 99 91 100 100 100 100
100 100 100 100 100 100 100 100 100 100 100 100 100 100 100 100 100 100 100 100 100 12 5 5 5 2 0 0 0 0 0 0 0 0 0 0 42 53 98 100 100 100 100 100 100 100 100
73 100 100 99 100 100 100 100 100 100 100 100 100 100 100 100 100 100 100 100 100 28 7 5 5 0 0 0 0 0 0 0 0 0 0 4 3 100 61 99 50 100 100 100 100 100 100
14 28 100 100 98 100 100 100 100 100 100 100 100 100 100 100 100 100 100 99 100 69 11 5 5 1 0 2 0 0 0 0 0 0 0 4 3 100 100 78 100 91 100 100 100 100 100
100 97 27 16 89 92 100 98 100 100 100 100 100 100 100 100 100 100 100 82 99 7 94 5 5 0 5 2 0 0 0 0 0 0 0 4 5 5 68 98 99 100 32 99 100 96 100
100 100 98 96 100 100 100 83 100 100 100 100 100 100 100 100 100 100 100 100 100 100 54 31 5 0 5 3 0 0 0 0 0 0 0 1 2 5 100 64 99 85 50 100 100 100 88
100 100 100 100 100 98 100 98 99 100 100 100 100 100 100 100 100 100 100 100 100 100 97 12 2 0 2 0 0 0 0 0 0 0 2 7 95 92 82 73 78 31 100 100 100 99 71
100 100 100 100 100 100 22 21 58 100 100 100 100 100 100 100 100 100 100 100 100 90 100 98 4 5 0 0 0 0 0 0 0 0 5 91 99 58 100 99 100 100 100 97 80 100 100
100 100 100 100 100 100 62 92 100 100 100 100 100 100 100 100 100 100 100 100 100 100 100 44 5 2 0 0 0 0 0 0 0 5 51 92 5 66 100 72 97 82 100 91 100 100 78
100 100 100 100 98 100 100 90 98 98 100 100 100 100 100 100 100 100 100 100 100 100 100 8 5 0 2 0 0 0 0 0 1 4 24 27 78 36 100 100 91 13 34 66 98 100 20
37 95 100 100 100 72 100 100 100 98 100 100 100 100 100 100 100 100 100 100 100 100 91 5 5 0 1 0 0 0 1 0 3 3 74 3 12 64 47 60 48 97 99 96 78 92 80
5 100 100 100 100 100 100 100 100 100 99 92 100 100 100 100 100 100 100 100 100 100 72 5 5 3 5 2 5 0 0 0 5 1 7 32 16 50 90 89 52 36 100 100 89 16 5
5 87 100 100 100 100 100 72 100 100 100 95 100 100 100 100 100 100 100 100 100 100 100 12 3 0 34 4 4 0 0 0 0 0 0 31 13 23 10 61 94 90 41 5 45 9 5
5 10 72 100 100 100 100 80 100 100 100 100 100 100 100 100 98 100 100 100 100 100 86 1 0 0 1 0 4 0 0 0 0 0 0 70 77 98 96 16 90 95 28 72 73 100 5
24 5 5 55 100 100 100 100 39 100 100 100 100 100 100 100 96 100 100 100 100 100 22 3 0 0 5 0 3 2 0 0 0 0 0 19 87 4 31 52 53 77 83 18 88 44 5
100 63 5 5 47 91 59 100 80 87 100 100 100 100 96 100 100 85 100 100 100 100 84 2 0 5 5 5 5 5 2 0 2 5 4 60 2 78 92 98 49 43 68 12 6 1 8
100 100 8 5 8 100 100 100 39 65 100 100 100 100 100 55 100 51 76 72 100 100 6 2 4 11 5 53 40 5 24 0 0 0 4 6 82 84 61 3 85 6 11 5 3 36 5
100 100 32 5 60 100 100 100 83 65 100 91 100 100 100 98 38 92 100 100 100 100 38 5 18 100 6 78 100 6 3 5 5 20 88 77 92 50 82 94 10 79 8 5 36 5 5
100 100 14 5 87 100 100 100 84 100 100 100 100 100 92 100 95 95 100 100 100 40 7 67 31 81 63 100 94 4 2 3 5 4 70 51 80 25 96 6 56 28 45 2 5 5 0
100 100 100 25 5 78 100 78 100 100 100 100 100 80 93 100 100 80 97 100 100 100 100 100 97 100 91 75 5 5 88 3 68 29 31 80 5 5 5 20 3 1 0 0 3 90 46
100 100 100 93 28 41 99 15 100 100 100 100 100 99 92 67 52 93 81 100 100 100 97 86 100 20 43 94 20 5 43 93 86 6 1 0 5 3 0 0 0 0 0 0 0 70 35
100 100 100 45 6 5 5 5 70 100 100 100 100 100 65 12 100 100 100 100 100 97 100 86 10 34 73 95 81 51 19 98 62 2 2 0 3 0 0 0 3 0 0 0 0 0 0
100 100 100 98 29 4 42 89 96 100 100 100 100 100 100 43 66 100 100 100 100 92 24 8 18 100 98 100 94 86 38 13 5 0 5 95 100 73 2 5 1 0 0 0 0 0 5
100 100 100 90 5 0 5 7 60 97 100 95 100 100 100 100 85 98 100 100 100 80 60 12 100 82 100 100 100 71 100 3 2 5 5 89 100 33 20 1 0 1 1 1 5 6 5
100 100 28 7 4 5 5 5 100 8 100 100 100 100 100 100 100 100 100 100 100 100 100 100 48 85 100 100 85 100 6 6 5 0 5 55 10 11 24 0 1 0 5 5 5 21 53
100 99 99 10 5 5 2 4 94 90 100 99 100 100 100 100 94 100 100 100 40 100 100 100 95 99 63 100 100 92 8 2 2 0 52 92 19 38 61 20 2 5 5 5 60 61 10
100 91 5 24 5 5 6 92 100 100 100 100 100 100 100 100 100 100 74 100 11 99 98 84 49 100 100 100 100 100 96 49 5 5 60 62 33 46 44 5 3 5 38 71 10 5 17

GFSGBSN_prec_cloud_027.txt.gz
Cloud_Cover
100 100 100 100 100 100 100 91 100 100 100 100 100 100 100 100 100 100 92 64 100 100 100 100 100 100 6 1 2 0 0 0 0 0 0 0 1 0 5 5 58 100 99 100 100 100 100
100 100 100 100 100 100 100 100 100 100 100 100 100 100 100 100 100 100 100 60 100 100 100 100 100 100 5 5 2 0 0 0 0 0 0 0 1 4 0 5 100 88 100 100 100 100 100
93 58 100 100 100 100 100 100 100 100 100 100 100 100 100 100 100 100 100 100 100 100 100 100 100 94 5 6 4 0 0 0 0 0 0 0 2 63 5 89 99 100 100 100 100 100 100
100 92 26 99 100 100 100 100 100 100 100 100 100 100 100 100 100 100 100 100 100 100 100 100 100 15 55 18 4 0 0 0 0 0 0 0 0 70 68 93 88 100 100 100 100 100 100
100 100 23 6 17 100 100 100 100 100 100 100 100 100 100 100 100 100 100 97 100 100 100 100 93 5 60 12 5 0 0 0 0 0 0 0 0 12 47 100 82 88 100 100 100 100 100
100 100 91 43 5 30 26 91 100 100 100 100 100 100 100 100 100 100 100 50 100 100 100 100 100 5 22 14 4 0 0 0 0 0 0 0 0 24 18 29 100 100 100 100 100 100 100
100 100 100 100 89 100 88 14 100 100 100 100 100 100 100 100 100 100 66 100 86 98 100 100 91 5 5 5 5 5 0 0 0 0 0 0 0 4 100 28 88 99 100 100 100 100 100
100 100 100 100 100 100 100 100 79 100 100 100 100 100 100 100 100 100 99 99 100 100 100 100 86 81 48 5 5 3 0 0 0 0 0 0 0 0 5 63 32 100 100 100 100 98 100
100 100 100 100 100 100 100 100 100 87 19 87 100 100 100 100 98 100 89 100 100 100 100 100 100 100 67 7 5 5 0 0 0 0 0 0 3 12 100 100 96 100 100 100 100 100 100
8 27 100 100 100 100 100 100 100 100 100 73 50 100 100 100 99 100 100 100 100 100 100 100 99 100 100 50 41 5 0 0 0 0 0 0 0 52 100 86 78 100 97 100 100 100 100
5 5 100 100 100 100 100 100 100 80 100 100 7 30 100 100 100 100 100 100 100 100 100 88 100 100 100 26 40 5 0 0 0 0 0 0 1 50 71 86 89 63 100 53 92 12 62
5 2 5 100 100 100 100 100 100 100 100 100 100 100 100 100 100 100 100 100 100 100 99 100 100 94 100 22 30 2 0 0 0 0 0 5 0 5 22 82 81 100 100 47 29 85 92
5 5 1 3 100 100 100 100 100 100 100 100 100 100 100 100 100 100 100 100 100 100 100 100 100 92 100 55 5 5 1 0 0 0 1 5 1 2 5 75 66 75 95 100 100 83 35
35 5 5 0 8 100 100 100 100 100 100 100 100 100 100 100 94 86 100 100 100 100 100 100 100 99 53 5 4 3 0 0 0 2 34 5 4 0 7 52 95 41 60 100 100 70 78
99 93 5 4 1 69 100 100 100 100 100 100 95 66 100 100 96 83 99 100 100 100 100 100 100 100 99 5 5 0 0 0 0 0 4 2 4 5 5 7 24 93 100 77 79 36 50
100 100 95 10 4 5 67 100 100 99 100 100 86 68 100 100 100 100 81 100 100 100 100 100 100 100 82 5 0 0 0 0 0 0 0 0 4 5 5 5 25 94 40 30 20 13 5
100 100 100 87 5 8 100 100 100 100 100 100 98 98 100 100 100 99 88 90 100 100 100 100 100 100 38 5 1 0 0 0 0 0 0 0 0 4 5 99 79 100 12 75 64 56 5
100 100 100 100 5 98 100 100 100 100 96 100 100 93 100 100 100 92 100 100 100 100 55 100 100 100 72 5 5 0 5 5 2 0 0 0 0 0 18 66 8 5 10 34 6 3 5
100 100 100 100 100 100 94 100 100 100 100 100 100 100 100 100 100 100 100 100 100 100 99 40 76 94 98 52 26 5 5 0 0 2 5 0 0 0 1 4 65 5 4 5 1 0 5
100 100 100 100 100 100 67 97 100 100 100 100 100 100 100 87 100 100 100 100 100 100 100 100 95 69 93 59 30 8 5 2 0 4 5 5 0 0 2 5 60 6 36 4 5 5 23
100 100 100 100 100 100 100 10 100 100 100 100 100 98 36 100 100 100 100 100 100 100 100 68 13 91 100 64 78 70 5 0 1 0 5 4 1 13 75 100 32 1 4 6 6 10 5
100 100 100 100 100 100 100 65 84 100 100 100 100 92 100 89 100 28 100 100 100 100 100 100 100 100 74 100 100 98 5 0 0 1 5 5 5 28 95 6 5 4 5 6 5 33 3
100 100 100 100 100 100 100 5 100 92 90 100 100 100 96 100 100 99 87 100 100 100 100 100 100 100 100 100 96 29 5 2 18 0 42 33 4 5 5 4 0 5 82 78 19 0 0
100 100 100 100 100 100 100 5 100 100 6 100 66 100 98 54 98 85 100 100 100 100 100 100 100 93 100 100 100 94 6 5 4 16 2 6 90 14 3 0 4 0 0 0 0 0 0
100 100 100 100 100 100 40 57 37 11 5 100 95 100 100 71 60 100 11 96 100 100 88 73 82 100 100 100 100 29 5 31 70 99 13 5 5 0 0 5 2 0 0 0 0 0 5
100 100 100 100 100 100 8 5 5 8 34 100 100 100 100 100 64 100 58 100 100 100 100 100 100 100 88 100 94 42 100 100 77 54 7 5 3 0 15 5 7 98 0 0 0 2 5
100 100 100 100 100 100 100 9 5 12 47 100 100 100 100 100 94 58 5 100 100 100 100 100 100 100 100 100 100 100 92 77 62 100 5 5 25 1 18 21 86 97 2 0 0 4 3
100 100 100 100 100 100 100 39 5 31 100 100 100 100 100 100 100 91 20 100 100 79 99 100 100 100 100 100 85 100 100 100 70 6 3 4 13 15 1 3 9 17 69 5 0 0 1
100 100 100 100 100 94 28 50 91 100 100 100 100 100 100 100 91 37 1 39 18 13 100 100 100 100 100 100 100 100 100 99 73 97 89 5 5 3 0 5 88 8 5 5 5 4 2

GFSGBSN_prec_cloud_030.txt.gz
Cloud_Cover
100 100 100 96 27 59 100 100 100 100 100 100 100 100 100 100 100 99 100 100 100 100 100 100 100 100 100 100 100 30 2 0 0 0 0 0 0 0 0 1 28 61 98 99 96 100 100
100 100 100 100 100 30 13 98 100 100 100 100 100 100 100 100 100 94 100 81 100 100 100 97 100 100 100 100 100 22 0 0 0 0 0 0 1 4 1 6 13 92 100 57 100 100 100
100 100 100 21 79 100 72 12 10 100 100 100 100 100 100 100 100 100 100 100 100 100 90 99 100 100 100 96 5 0 0 0 0 0 0 0 0 5 5 100 90 100 100 100 100 100 100
100 100 100 100 94 52 99 97 59 100 100 100 100 100 100 100 100 100 100 100 100 100 100 100 95 100 100 92 9 5 1 0 0 0 0 0 0 4 5 100 17 55 100 99 100 100 100
100 100 100 100 100 100 77 98 75 100 100 99 100 100 100 100 100 100 100 100 100 100 100 100 99 100 100 73 13 5 5 0 0 0 0 0 0 0 3 94 100 97 100 98 100 96 99
100 100 100 100 100 100 100 96 100 92 94 100 94 98 100 100 100 100 100 100 100 100 100 100 50 100 100 97 24 5 3 0 0 0 0 0 0 0 0 71 100 98 85 57 84 56 99
100 100 100 100 100 100 100 100 100 89 54 100 98 100 91 100 100 100 100 100 100 100 100 100 100 100 100 100 100 57 2 0 0 0 0 0 0 0 0 5 22 100 100 100 100 100 88
100 100 100 100 100 100 100 100 100 100 100 98 100 100 100 81 100 98 100 100 100 100 100 100 100 100 100 100 100 95 3 0 0 0 0 0 0 0 0 2 35 60 100 73 100 100 37
100 87 100 100 100 100 100 100 100 100 100 100 100 100 100 100 100 99 99 100 100 100 47 95 100 100 100 78 100 100 28 0 0 0 0 0 0 0 30 100 94 18 89 100 100 100 58
100 100 100 100 100 100 100 100 100 100 100 100 100 100 100 100 100 100 100 100 100 100 87 100 100 100 100 30 100 100 41 5 5 0 0 0 0 0 61 5 49 100 48 99 100 99 99
82 100 97 88 96 100 100 100 100 100 100 100 100 99 100 100 100 100 100 100 84 99 100 90 55 94 100 36 100 36 47 5 5 0 0 0 5 4 5 4 2 8 5 77 100 100 100
5 17 100 80 5 1 96 100 100 100 100 100 100 58 89 100 100 96 89 100 55 95 100 62 63 100 100 99 100 76 86 5 4 0 0 0 2 5 0 0 5 17 6 11 75 100 94
47 55 100 94 26 5 3 100 100 100 100 100 100 93 57 100 100 27 96 99 98 88 100 100 100 100 100 27 78 97 72 5 4 0 0 0 2 1 5 4 0 87 11 23 57 100 100
98 62 100 100 79 23 3 6 100 100 100 100 100 95 15 100 100 22 42 100 98 60 100 100 100 99 96 17 88 100 100 8 5 0 2 2 0 0 0 5 15 8 6 5 8 80 57
95 100 54 95 100 99 6 0 52 100 100 100 100 100 6 100 100 100 69 99 71 100 100 94 100 100 24 8 100 100 100 7 5 0 0 2 2 3 3 5 5 5 5 5 6 5 5
100 64 100 94 100 100 86 4 0 100 100 100 100 100 67 97 100 100 100 59 100 100 100 100 100 100 100 99 88 100 100 90 6 4 0 0 2 5 13 59 10 5 3 69 70 5 6
100 100 98 100 100 100 100 13 1 100 100 100 100 100 22 97 100 100 97 86 100 100 100 100 100 100 100 57 100 100 100 44 5 0 0 0 0 4 5 35 63 6 5 5 5 57 34
100 100 100 100 100 100 100 61 5 66 100 100 100 100 2 100 100 100 100 100 100 100 100 100 100 100 100 100 74 99 100 59 5 4 2 0 0 0 0 8 74 5 91 43 5 31 28
100 100 100 100 100 100 100 100 78 98 100 100 100 100 30 75 99 96 100 100 100 100 100 100 100 100 100 100 39 100 100 94 60 5 3 0 0 0 0 0 2 4 86 6 5 6 9
98 100 100 100 100 100 100 100 100 99 100 100 100 100 61 69 0 22 100 100 100 100 100 100 100 100 100 100 77 95 58 37 21 5 3 25 4 0 0 0 3 2 5 5 12 24 5
4 98 100 100 100 100 100 100 100 100 93 100 84 100 96 100 94 21 98 100 100 100 100 100 100 100 100 100 100 100 50 24 7 2 4 16 8 5 1 0 6 0 3 2 0 5 33
6 12 100 100 100 100 100 100 100 100 100 100 100 90 69 93 63 56 100 100 100 100 100 100 100 100 100 100 99 100 100 61 40 5 5 49 3 5 5 5 1 4 5 6 5 5 54
100 99 100 100 100 100 100 100 100 100 100 100 76 67 58 64 100 100 54 100 100 100 100 100 100 100 100 100 100 100 100 100 66 6 2 4 0 4 5 73 59 8 72 10 10 6 4
100 90 90 100 100 100 100 100 100 31 100 70 4 6 83 100 90 27 94 100 100 100 100 100 100 100 100 100 100 100 100 98 81 5 5 11 5 5 25 78 20 0 0 0 5 5 4
100 96 100 65 100 100 100 100 100 89 6 1 5 43 100 85 34 84 92 100 100 100 100 100 100 100 100 100 100 100 100 89 86 40 5 30 13 26 73 8 1 0 0 0 0 0 0
83 98 44 100 100 100 100 100 100 100 54 99 5 100 100 100 48 8 98 100 100 100 100 100 100 100 100 100 94 99 71 75 80 95 47 16 5 97 5 5 3 4 52 5 0 88 0
100 100 100 100 100 100 100 100 100 100 93 98 29 100 100 100 100 59 7 100 100 100 100 100 100 100 98 100 98 100 100 100 77 100 100 59 16 58 36 2 2 0 36 3 5 79 2
99 100 100 100 100 100 100 100 100 98 33 93 21 97 100 100 100 99 7 100 100 100 100 100 100 49 35 35 65 99 100 100 100 100 100 100 23 25 82 7 3 3 0 0 0 4 5
100 100 100 100 100 100 100 100 100 100 98 58 80 100 100 100 100 100 70 100 100 100 100 100 100 100 94 100 100 100 100 100 100 100 100 100 92 12 5 4 79 5 0 0 0 0 2

GFSGBSN_prec_cloud_033.txt.gz
Cloud_Cover
100 100 100 98 100 100 100 23 17 5 93 100 100 100 100 100 100 100 98 100 100 100 100 100 100 49 29 73 68 100 53 3 0 0 0 0 0 0 0 0 0 0 6 56 100 100 100
100 100 100 100 100 100 100 93 9 5 5 42 100 100 100 100 100 100 100 79 97 100 100 100 91 83 68 98 100 100 85 5 4 0 0 0 0 0 0 0 3 5 12 100 100 100 100
100 100 100 100 100 100 100 100 100 31 6 5 57 100 100 100 100 100 100 100 100 100 100 100 100 97 69 73 65 100 22 5 5 0 0 0 0 0 0 0 5 8 93 100 100 100 100
100 100 100 100 100 100 100 100 100 100 40 16 13 47 76 100 100 100 100 100 100 100 100 100 100 100 69 93 28 100 6 5 4 0 0 0 0 0 0 0 4 80 100 100 100 100 100
100 100 100 100 100 100 100 100 100 100 100 86 95 70 98 100 64 100 100 100 100 100 100 100 100 98 40 78 52 100 18 5 0 0 0 0 0 0 0 0 1 63 56 39 100 100 100
100 100 100 93 100 100 100 100 100 100 100 100 100 99 99 84 50 89 100 100 100 100 100 100 97 100 64 100 22 100 9 37 4 0 0 0 0 0 0 1 5 87 98 24 100 93 100
15 100 100 100 100 100 100 100 100 100 100 100 100 100 100 100 100 74 78 89 97 100 100 100 100 100 100 100 90 100 92 78 5 4 0 0 0 0 0 0 5 18 99 34 16 97 100
100 100 100 100 100 100 100 100 100 100 100 100 100 100 100 100 100 100 85 78 72 99 80 100 100 100 99 100 39 80 100 23 34 5 2 0 0 0 0 0 0 4 84 97 100 100 94
100 100 100 96 100 100 100 100 100 100 100 100 100 100 100 100 100 100 85 80 26 100 82 100 93 87 93 91 41 100 100 7 7 5 1 0 0 0 0 5 5 0 6 84 58 100 100
100 100 100 100 100 99 100 100 100 100 100 100 100 100 100 100 100 100 100 100 42 61 100 100 100 100 100 97 100 96 100 6 19 3 2 0 0 0 0 1 28 4 4 14 80 100 100
34 37 100 91 100 66 52 100 100 100 100 100 100 100 100 100 100 100 100 100 100 100 100 100 100 100 100 100 100 100 15 3 11 8 5 0 0 0 0 0 20 60 10 73 98 100 100
99 17 84 100 41 81 97 19 69 98 100 100 100 100 100 100 100 100 100 100 100 97 100 100 100 100 100 100 100 87 39 5 5 11 4 0 0 0 0 0 1 86 5 5 98 100 100
87 100 100 98 100 100 100 91 5 2 68 100 100 100 100 100 100 100 100 100 100 100 100 100 97 59 88 100 98 92 76 5 8 90 2 0 0 0 0 0 1 5 5 5 15 93 100
98 64 98 100 100 100 100 100 74 4 5 95 100 100 100 100 97 32 91 100 97 100 100 100 100 100 100 100 81 98 97 5 6 79 5 0 3 0 0 0 0 1 4 5 5 12 47
68 84 45 83 100 98 100 100 100 5 1 100 100 100 100 19 100 100 100 96 5 19 100 100 71 75 100 100 99 89 60 5 45 88 5 5 5 0 0 0 1 2 6 4 5 6 99
100 100 87 96 68 97 98 100 100 58 0 94 100 100 100 100 100 100 100 5 3 2 97 80 21 8 100 100 100 100 59 29 40 5 5 5 5 0 0 0 1 5 5 3 2 40 100
100 100 94 95 100 58 91 100 100 89 3 9 100 100 14 100 100 100 76 13 2 2 5 6 67 89 100 100 97 72 33 12 79 16 5 0 1 2 0 5 5 5 5 5 4 5 5
100 100 100 100 100 100 97 98 100 100 71 60 100 98 13 5 100 100 67 5 0 0 3 5 60 100 100 100 100 100 100 100 100 100 49 2 5 4 0 5 5 5 2 4 3 13 9
100 100 100 100 100 100 100 100 100 100 93 94 100 100 95 3 100 97 4 36 6 0 38 13 68 100 100 100 100 100 100 74 100 100 60 5 5 0 4 0 1 0 2 2 5 5 51
23 55 100 100 100 100 100 100 100 100 100 100 100 100 100 85 2 38 86 74 86 0 77 25 100 100 100 100 100 100 100 100 100 100 69 5 4 0 0 0 0 0 5 46 14 5 6
68 25 97 100 100 100 100 100 100 100 100 100 100 81 99 97 81 76 77 18 29 4 100 100 100 89 100 100 100 100 100 100 100 100 42 6 5 5 0 0 0 0 0 4 0 1 2
100 87 75 34 100 100 100 100 100 100 100 100 100 22 13 55 5 52 100 100 8 46 100 100 100 100 100 100 100 100 100 100 100 93 68 79 6 5 0 0 5 4 0 0 0 0 2
90 99 100 100 100 100 100 100 100 100 100 100 98 8 0 5 30 97 66 86 85 99 100 100 100 100 100 100 100 100 100 100 100 100 90 100 20 5 5 0 5 0 75 2 5 2 6
100 100 100 100 100 94 100 100 100 100 100 100 96 5 17 45 100 45 94 24 96 100 100 100 100 100 100 100 100 100 100 100 100 100 75 67 84 11 36 1 3 2 2 4 17 0 0
100 100 100 100 100 20 100 100 100 100 100 100 100 86 82 17 84 94 36 38 82 100 100 100 100 100 100 100 100 100 100 28 87 100 97 100 55 31 49 0 5 0 0 0 0 3 0
100 100 100 80 52 100 100 100 100 100 100 100 100 64 37 49 94 70 12 40 74 100 100 100 100 100 100 100 100 100 46 100 100 100 100 100 59 5 5 7 64 1 0 0 0 19 5
100 100 100 100 98 100 100 100 100 100 100 100 100 57 40 100 41 99 81 23 89 100 100 100 100 100 100 100 100 100 100 100 100 100 100 96 18 47 49 51 100 39 1 0 0 0 1
100 100 100 100 100 100 100 100 100 100 100 100 82 42 40 100 64 100 34 85 53 100 100 100 100 100 100 98 26 100 100 100 100 100 100 100 100 100 95 89 100 10 1 0 0 0 0
100 100 35 91 100 100 100 100 100 100 100 100 98 71 24 9 99 100 56 73 99 100 100 100 100 100 100 100 100 99 100 100 100 100 100 100 100 100 17 88 100 26 5 0 1 1 0

GFSGBSN_prec_cloud_036.txt.gz
Cloud_Cover
100 100 100 100 100 100 100 100 100 34 2 16 3 0 56 100 100 100 100 100 100 100 100 100 100 100 38 6 5 11 67 16 5 0 0 0 0 0 0 0 0 0 5 40 82 78 53
100 100 100 100 100 100 100 100 100 100 84 28 6 4 6 98 100 100 100 100 100 100 100 100 81 100 41 8 89 86 44 5 3 0 0 0 0 0 0 0 2 1 0 16 5 99 97
100 100 100 100 100 100 100 100 100 100 100 100 100 94 92 8 92 100 100 100 100 100 100 56 98 57 47 100 100 5 5 5 0 0 0 0 0 0 0 0 0 5 6 11 48 97 100
100 100 100 100 100 100 100 100 100 100 96 38 100 99 76 64 91 100 96 100 100 100 100 99 100 100 100 79 30 4 4 5 2 0 5 2 0 0 0 0 1 5 32 100 100 76 86
90 99 85 100 100 100 100 100 100 100 100 100 100 100 84 87 91 99 100 100 81 100 100 100 100 100 100 80 6 4 4 3 0 2 11 5 3 0 0 0 5 8 100 98 61 100 92
72 100 92 15 19 100 97 100 100 100 100 100 100 100 100 72 84 99 100 96 99 95 98 89 100 100 92 100 57 60 5 5 4 0 5 5 0 0 0 0 78 100 100 99 100 24 61
20 12 5 5 100 30 60 100 100 100 100 100 100 100 100 85 99 92 41 95 92 60 8 29 98 31 5 88 58 12 46 5 5 0 2 3 2 3 0 2 3 1 8 98 76 5 100
100 58 5 5 10 30 5 5 100 98 100 100 100 100 100 16 6 94 77 82 96 100 100 36 14 100 6 42 87 58 84 45 33 92 25 3 5 1 5 4 0 0 3 56 79 73 88
52 44 80 6 5 4 13 95 100 100 100 100 100 100 100 100 99 99 100 100 100 100 100 100 90 100 7 41 100 94 98 100 100 65 9 1 5 5 5 4 0 0 6 5 91 74 100
100 99 100 100 98 66 45 10 60 100 100 100 100 100 100 100 67 100 98 100 100 100 100 100 100 98 20 91 100 100 100 100 100 31 5 4 5 5 4 1 1 6 1 0 5 100 100
5 58 90 98 100 100 100 100 98 100 100 100 100 100 100 100 100 100 100 100 100 100 100 100 100 100 100 100 100 100 100 100 95 100 5 26 5 5 5 2 0 39 5 5 5 62 100
5 5 5 5 5 95 100 100 100 100 100 100 100 100 100 94 100 100 100 100 100 100 100 100 100 100 100 95 100 100 100 100 52 5 80 6 5 26 5 4 4 0 2 5 5 79 100
5 5 5 5 13 96 99 100 100 21 92 58 100 100 100 100 100 100 97 84 98 97 100 100 100 100 100 100 100 100 100 100 80 5 5 80 5 42 5 4 4 1 5 88 98 93 100
100 43 13 5 5 65 73 100 100 100 100 54 98 100 99 100 100 100 100 100 6 78 100 100 100 100 100 100 100 100 100 100 100 98 5 5 5 5 5 7 6 0 74 92 100 49 94
98 100 100 61 17 12 90 100 100 100 100 100 0 86 100 100 100 100 100 96 4 100 100 100 100 100 100 100 100 100 100 100 100 100 100 5 5 5 5 10 18 5 4 51 5 5 5
91 70 100 100 100 56 92 100 100 100 100 100 20 64 100 77 90 100 100 70 15 100 100 100 100 100 100 100 100 100 100 100 100 100 100 50 5 3 5 10 5 6 16 2 5 42 66
72 36 80 80 100 100 99 100 100 100 100 100 84 100 93 100 21 100 100 16 0 28 100 100 100 100 100 100 100 100 100 100 100 100 100 70 5 16 5 5 4 5 1 4 45 21 96
100 100 100 18 90 76 91 100 100 100 100 100 32 100 96 99 100 100 73 1 0 1 5 6 37 100 100 99 100 100 100 100 100 82 100 55 5 6 5 12 7 95 98 13 5 64 4
100 97 7 32 100 91 95 100 100 100 100 100 82 100 100 100 100 99 2 2 42 43 5 2 2 100 100 100 100 100 100 100 100 100 90 47 93 6 5 6 5 5 5 5 2 0 0
81 84 74 100 98 100 100 100 100 100 100 100 96 100 100 100 12 52 0 0 75 99 34 5 5 90 26 100 48 100 100 100 100 100 100 34 94 66 39 5 66 4 4 5 16 4 0
67 86 5 5 7 100 100 100 100 100 100 100 100 97 60 100 82 2 0 0 1 46 6 87 41 5 5 83 100 100 100 100 100 100 91 100 96 99 10 5 12 5 1 13 5 0 5
93 100 100 91 88 100 100 100 100 100 100 100 100 65 89 10 73 5 4 3 2 24 6 4 12 5 95 100 100 100 100 100 100 99 100 100 98 100 51 8 5 5 0 5 5 0 0
100 100 100 100 100 100 100 100 100 100 100 100 74 63 94 16 61 82 2 5 4 5 5 4 5 100 100 100 100 100 100 100 100 100 100 97 100 100 99 5 8 92 4 3 5 3 0
66 38 100 100 100 100 100 100 100 100 100 100 86 90 94 97 100 14 5 34 100 7 3 5 5 5 49 100 100 100 100 100 100 100 100 91 100 100 93 5 87 14 5 2 5 5 0
99 100 100 100 100 100 68 100 100 100 100 100 88 58 100 64 42 82 18 9 100 100 21 88 5 31 100 100 100 100 100 100 100 100 100 37 100 100 100 71 100 98 1 0 50 0 0
96 100 100 100 100 100 100 93 100 100 100 100 100 100 100 100 100 100 46 26 54 100 100 100 100 100 100 100 100 100 100 100 100 100 100 100 100 100 100 100 100 100 5 0 3 3 2
100 100 100 100 100 100 47 100 100 100 100 100 100 100 100 89 100 100 79 74 34 38 93 100 100 100 100 100 100 100 100 100 100 100 100 100 100 100 100 100 100 100 38 0 4 17 0
100 92 100 100 100 100 100 100 100 100 100 100 100 100 100 100 81 66 22 79 100 88 5 66 100 99 100 100 100 100 65 100 100 100 100 100 100 100 100 100 100 100 6 4 11 5 5
100 100 100 100 100 100 100 100 100 100 100 100 100 100 100 100 94 39 52 100 100 93 21 72 10 95 100 100 76 100 100 100 100 100 100 100 100 100 100 100 100 100 100 91 17 15 33

GFSGBSN_prec_cloud_039.txt.gz
Cloud_Cover
100 100 100 100 100 100 100 100 100 100 100 100 18 7 5 4 0 4 28 100 100 100 100 100 100 100 100 100 100 5 44 100 48 0 0 0 0 0 5 1 1 2 9 2 3 98 17
100 100 100 100 100 100 100 100 100 100 100 100 100 65 4 99 20 1 4 72 100 100 100 100 100 100 88 44 9 68 100 43 5 0 3 0 0 0 1 0 10 10 0 21 1 2 18
100 100 100 100 100 100 100 100 100 100 100 100 65 100 98 24 97 5 5 38 100 100 100 100 100 98 68 93 98 99 32 0 0 0 5 0 0 0 0 1 0 0 10 85 82 28 82
100 100 100 100 100 100 100 100 100 100 100 100 98 67 100 85 97 53 5 5 100 100 100 100 100 98 90 100 100 100 4 3 15 0 5 3 0 0 0 0 0 0 4 76 96 3 99
100 100 100 100 100 100 100 100 100 100 100 100 100 100 100 100 100 100 51 20 35 100 100 100 100 100 100 100 100 100 100 14 15 4 5 4 0 0 0 0 35 9 100 79 55 6 95
100 100 100 100 100 100 100 100 100 100 100 100 100 100 100 100 44 90 86 67 18 85 100 100 97 45 100 100 100 100 45 50 5 5 5 5 5 5 2 8 98 100 97 93 24 89 6
100 100 95 92 100 100 100 100 100 100 100 97 100 100 100 100 15 93 87 86 10 29 87 100 91 6 100 96 5 5 99 71 5 5 5 5 5 4 16 37 76 100 80 100 48 100 96
100 100 100 100 100 100 70 100 100 100 87 97 100 100 100 100 99 84 40 73 30 8 81 99 99 6 6 5 5 5 29 69 98 3 100 32 5 5 49 5 5 8 100 74 78 2 41
100 100 100 100 100 100 100 72 10 5 17 7 65 100 100 100 100 86 74 29 89 84 37 58 97 100 22 5 26 5 5 91 100 92 63 74 44 33 5 4 5 79 100 100 51 88 5
55 96 100 44 69 99 59 100 100 80 24 5 2 100 100 100 89 24 66 51 97 100 42 97 8 92 70 31 81 36 5 28 100 95 34 72 5 5 5 5 10 98 23 28 5 4 99
8 58 19 87 99 100 92 94 100 45 46 64 95 83 100 96 82 100 58 100 78 63 5 12 92 100 100 100 100 100 53 60 99 45 100 35 18 50 6 5 50 99 98 5 14 100 97
66 65 18 14 40 85 86 100 89 90 76 38 5 44 100 91 70 100 100 100 100 100 15 5 79 100 100 100 100 100 100 100 79 100 100 100 10 23 31 16 21 75 46 51 30 44 99
100 100 86 13 23 5 20 68 91 100 100 100 100 100 94 100 86 100 100 100 100 98 24 95 100 100 100 100 100 100 100 100 100 100 100 94 99 86 7 51 5 8 94 92 88 100 84
100 100 99 28 22 5 5 26 100 100 100 96 35 65 78 99 100 100 100 100 90 5 100 96 100 100 100 100 100 100 100 100 100 100 100 100 100 100 100 57 73 5 91 100 100 96 100
60 100 100 100 20 28 27 85 100 100 100 100 99 17 29 16 100 100 100 100 2 88 100 100 100 100 100 100 100 100 100 100 100 100 100 100 100 100 100 100 24 96 90 60 100 6 12
100 100 100 35 44 9 89 91 97 100 100 100 96 90 54 41 64 82 100 54 46 7 100 100 100 100 100 100 100 100 100 100 100 100 100 100 100 100 100 100 51 14 100 95 88 72 80
100 100 100 100 77 22 18 81 92 100 100 100 100 100 58 8 91 99 100 35 58 100 100 65 100 100 100 100 100 100 100 100 100 100 100 100 100 100 100 100 14 5 17 59 100 100 92
100 100 79 98 98 100 74 96 100 100 100 100 100 100 94 90 100 100 100 6 0 49 100 60 100 100 100 100 100 100 100 100 100 100 100 100 100 100 100 97 21 99 42 99 100 100 53
84 98 65 47 100 100 100 99 100 100 100 100 100 100 99 99 100 85 5 5 0 0 2 92 100 100 100 100 100 100 100 100 100 100 100 100 100 100 100 99 23 97 98 100 100 100 92
33 30 18 34 100 100 100 100 100 100 100 100 100 100 100 100 30 73 5 1 0 0 0 22 84 100 100 100 100 100 100 100 100 100 100 100 100 100 100 100 87 64 100 63 95 100 35
93 100 87 5 97 100 100 100 100 100 100 100 100 91 41 100 79 7 86 6 4 5 14 4 15 38 99 100 100 100 100 100 100 100 100 100 100 100 100 100 99 100 100 82 100 97 99
100 6 15 5 45 71 80 98 100 100 100 100 100 86 80 6 98 84 92 44 5 1 5 27 5 4 98 100 100 100 100 100 99 97 98 99 100 100 100 100 83 99 100 95 90 100 66
23 12 6 5 5 5 5 98 4 100 100 100 100 100 100 99 84 86 27 5 5 2 5 16 23 88 2 57 100 100 100 86 49 72 94 80 89 100 100 100 100 59 100 53 49 5 17
96 100 100 96 74 51 97 94 4 94 100 100 100 100 100 89 94 16 3 5 5 5 5 32 100 100 28 100 100 100 99 92 100 100 98 49 92 100 100 100 40 100 100 99 56 5 5
69 86 88 100 100 61 100 100 55 100 100 100 100 100 100 100 46 68 96 52 62 89 93 100 87 76 92 74 100 100 100 100 100 100 96 100 100 100 100 100 100 100 100 100 92 84 5
12 82 79 99 100 74 100 100 100 100 100 100 100 100 100 100 95 100 100 100 100 25 97 18 100 100 100 100 100 97 100 81 100 100 96 100 100 100 100 100 100 100 100 95 60 100 2
26 96 85 100 100 100 100 100 100 100 100 100 100 100 100 100 100 100 100 94 100 67 29 5 26 50 100 100 83 5 84 100 100 100 100 100 100 100 100 99 100 100 100 100 87 94 6
100 98 54 100 100 100 100 100 100 100 100 100 100 100 100 100 100 100 100 100 100 70 21 5 18 44 100 100 75 5 4 98 100 100 100 100 100 100 100 100 100 100 100 100 80 68 5
95 100 77 99 100 100 100 100 100 100 100 100 100 100 100 100 100 100 100 100 96 95 94 100 51 46 100 100 94 5 13 99 100 100 100 100 100 100 100 100 100 100 100 100 32 27 15

GFSGBSN_prec_cloud_042.txt.gz
Cloud_Cover
100 100 100 100 100 100 100 100 100 100 100 100 100 100 100 100 100 80 5 5 0 4 6 11 28 100 24 16 39 100 73 18 79 100 10 0 0 0 1 94 4 31 10 5 7 0 27
100 100 100 100 100 100 100 100 100 100 100 100 100 98 99 100 100 100 58 0 5 3 0 6 100 100 83 100 88 99 29 100 53 0 0 0 0 2 0 2 4 84 6 0 23 0 100
100 100 100 100 100 100 100 100 100 100 100 100 100 100 100 100 100 100 98 3 6 5 0 27 23 100 100 100 66 22 100 98 98 39 0 0 5 5 2 3 53 0 0 12 100 99 100
100 100 100 100 100 100 100 100 100 100 100 100 100 100 100 100 100 100 100 2 26 19 5 16 47 100 100 100 100 99 100 100 100 82 4 5 5 5 5 0 1 0 0 5 95 17 54
100 100 100 100 100 100 100 100 100 100 100 100 100 100 100 100 100 100 100 94 15 46 45 64 80 100 100 100 82 100 100 100 100 100 36 4 5 60 39 4 0 24 3 54 32 27 3
100 100 100 100 100 100 100 100 100 100 100 100 100 100 100 100 100 100 100 56 48 12 99 98 54 100 100 100 100 100 100 100 97 5 5 13 5 61 5 5 4 100 50 100 53 57 28
100 100 100 100 100 100 100 100 100 100 100 100 100 100 100 100 100 100 100 100 15 19 74 80 8 100 100 100 5 87 100 89 5 5 90 5 5 5 63 5 5 62 90 69 45 21 19
100 100 100 100 100 100 100 100 100 100 100 100 100 100 100 100 100 100 100 100 21 5 5 30 63 83 90 100 100 69 100 97 5 17 11 6 27 5 5 5 5 8 12 86 94 87 0
100 100 100 100 100 100 100 100 100 100 100 100 100 100 100 100 100 100 70 86 5 25 20 33 96 5 40 99 88 15 11 6 4 5 5 8 78 65 32 16 5 8 5 34 75 100 19
100 100 100 100 100 100 100 100 100 100 100 100 100 100 100 100 100 100 100 45 6 5 1 99 49 6 5 92 99 86 20 4 3 5 5 31 50 76 5 16 5 49 5 84 45 73 8
100 100 100 100 100 100 100 100 100 100 100 100 100 100 100 100 100 74 84 82 100 30 2 4 26 100 10 12 100 35 59 12 49 100 100 100 34 9 34 8 5 16 9 55 4 5 30
78 100 100 100 100 89 90 100 100 100 100 100 100 100 62 100 100 100 100 100 50 61 4 4 8 100 41 88 100 42 19 54 100 100 100 100 98 100 100 95 100 85 9 71 38 0 2
95 100 99 90 56 60 47 89 67 94 62 100 100 66 41 98 96 100 100 87 5 0 2 5 1 79 100 47 58 9 63 85 100 100 100 100 100 100 100 100 100 97 76 18 5 76 24
100 99 100 100 100 100 98 50 92 86 96 100 100 100 24 86 100 100 100 100 2 2 5 3 0 3 100 100 98 100 66 43 100 100 100 100 100 100 100 99 100 100 100 67 10 57 93
100 100 100 14 81 100 100 100 86 100 100 100 100 99 98 47 98 100 94 100 0 2 2 5 6 100 100 100 100 100 100 100 100 100 100 100 100 100 99 100 100 100 100 100 85 98 94
100 100 100 100 62 100 100 93 100 95 100 100 100 100 100 100 20 52 100 100 92 86 20 4 30 100 100 100 100 100 100 100 100 100 100 100 100 100 100 100 100 100 100 100 100 99 83
100 100 100 100 100 100 100 100 100 100 97 100 100 100 93 100 98 100 100 4 16 75 91 3 5 100 100 100 100 100 100 100 100 100 100 100 100 100 100 100 100 100 100 100 100 97 77
100 98 80 100 100 100 100 100 100 100 100 100 100 100 98 100 100 100 100 0 0 4 6 100 80 54 100 100 100 100 100 100 100 100 100 100 100 100 100 100 100 100 100 100 100 38 16
90 72 100 100 86 100 100 63 100 100 100 100 100 100 100 100 97 100 100 5 0 0 0 0 0 5 62 100 100 100 100 100 100 100 100 100 100 100 100 100 100 100 100 100 100 15 25
100 100 100 100 100 100 100 98 100 100 100 100 100 100 100 100 12 15 76 5 3 5 4 0 7 2 2 100 100 100 100 100 100 100 100 100 100 100 96 100 100 94 98 100 100 100 99
100 100 96 100 100 100 100 99 100 100 100 100 100 100 38 100 90 8 83 9 5 5 4 4 12 73 1 100 100 100 100 100 100 100 100 100 100 100 100 100 100 100 100 100 100 100 97
100 100 100 100 100 100 58 41 100 100 100 100 100 96 63 63 88 85 75 5 50 5 5 2 0 0 5 2 100 100 100 100 100 100 100 100 100 100 100 100 100 82 100 100 100 100 100
69 78 94 98 100 99 100 89 100 100 100 100 100 60 100 12 100 99 24 5 0 59 98 9 0 0 22 30 7 100 100 100 100 100 100 100 100 100 100 100 100 66 100 100 100 100 100
96 85 76 43 39 33 56 100 100 100 100 100 100 100 100 98 76 25 5 4 8 99 77 94 5 10 0 66 90 73 100 100 100 100 100 100 100 100 100 100 36 95 94 100 100 100 100
100 100 100 91 100 98 99 85 75 5 37 100 100 100 100 100 91 73 95 81 94 91 87 8 32 2 30 92 100 34 83 100 100 100 100 100 100 100 98 77 97 80 100 100 100 100 100
29 39 28 41 100 66 99 100 100 99 68 98 100 100 100 100 97 100 100 100 100 92 94 5 5 47 100 41 100 100 69 100 100 100 100 100 99 99 100 19 5 61 100 100 100 100 100
17 5 5 5 5 100 100 99 100 100 100 85 100 84 100 100 100 100 100 100 99 43 31 36 24 88 98 0 76 100 90 100 100 100 100 100 100 92 66 100 65 100 100 100 100 100 100
98 50 5 57 73 100 100 100 100 100 100 100 59 100 100 100 100 100 100 100 100 100 28 19 100 63 85 1 4 68 7 100 100 100 100 100 100 100 81 91 46 100 100 100 100 100 100
5 21 91 47 6 97 100 100 100 100 100 99 100 100 100 100 100 100 100 100 100 100 99 96 2 75 5 38 100 18 90 100 100 100 100 100 96 100 100 8 28 100 100 100 100 100 84

GFSGBSN_prec_cloud_045.txt.gz
Cloud_Cover
100 100 100 100 100 97 100 100 100 100 100 100 100 100 100 100 94 100 84 98 100 100 100 57 12 10 14 18 50 100 87 48 5 6 91 70 0 0 0 5 1 45 1 1 0 20 4
97 100 100 100 100 100 100 100 100 100 100 100 100 100 100 100 100 100 100 35 100 100 100 100 93 18 6 1 81 87 26 7 38 100 100 52 5 0 2 5 5 0 5 0 0 19 99
100 100 100 100 100 100 100 100 100 100 100 97 100 100 100 100 100 100 100 100 99 100 100 100 100 73 37 3 81 100 67 7 100 100 100 100 100 33 5 4 5 0 0 0 2 5 7
100 100 100 100 100 100 100 100 100 100 100 100 100 100 100 100 100 100 100 100 100 100 100 100 100 98 26 2 100 100 96 68 100 100 100 100 100 73 5 1 5 5 0 0 21 100 4
100 100 100 100 100 100 100 100 100 100 100 100 100 100 100 100 100 100 100 100 100 100 100 100 100 100 5 5 98 100 100 81 100 100 100 100 78 2 3 5 5 5 1 2 11 12 96
100 100 100 100 100 100 100 100 100 100 100 100 100 100 100 100 100 100 100 100 100 100 100 100 100 94 0 8 47 100 45 87 100 100 100 100 90 5 5 5 5 5 5 21 92 71 14
100 100 100 100 100 100 100 100 100 100 100 100 100 100 100 100 100 100 100 100 100 100 100 100 100 100 26 6 9 100 100 100 98 98 100 82 7 6 5 5 29 6 4 9 98 78 74
100 100 100 100 100 100 100 100 100 100 100 100 100 100 100 100 100 100 100 100 77 82 89 100 100 100 9 6 5 40 100 100 98 100 6 28 5 5 49 17 26 93 5 3 99 58 68
100 100 100 100 100 100 100 100 100 100 100 100 100 100 100 100 100 100 100 100 100 100 100 100 100 100 59 1 55 5 34 100 100 100 51 5 63 4 5 15 5 5 7 4 42 63 11
100 100 100 100 100 100 100 100 100 100 100 100 100 100 100 100 100 100 100 100 100 100 100 100 100 100 48 13 43 43 5 8 92 100 3 7 30 2 51 97 100 88 50 35 6 40 4
100 100 100 100 100 100 100 100 100 100 100 100 100 100 100 100 100 100 100 100 100 100 100 100 100 100 100 2 7 8 5 0 22 46 5 37 6 4 89 99 100 100 100 24 2 0 0
5 82 100 100 100 100 100 100 100 100 100 100 100 100 100 100 100 100 100 100 100 100 100 100 100 100 100 26 5 30 5 4 4 0 5 9 5 5 60 83 100 100 100 93 5 5 5
59 84 14 72 100 100 100 100 100 100 100 100 100 100 100 100 100 100 100 100 99 100 100 96 93 100 100 33 5 2 37 8 74 3 62 31 12 2 33 100 100 100 100 100 70 46 72
82 5 5 91 100 100 100 100 100 100 100 100 100 100 100 100 100 100 100 100 94 100 99 100 100 42 100 97 100 80 9 13 5 69 47 9 37 98 78 100 100 100 100 100 100 79 100
28 8 83 100 100 100 88 100 100 100 100 100 100 100 100 100 100 100 100 100 100 100 100 100 100 17 90 100 40 100 78 71 72 87 97 66 37 94 5 82 100 100 100 33 97 76 100
100 100 99 84 100 100 100 100 96 100 100 100 100 100 100 98 80 100 100 90 100 100 100 97 100 63 5 64 52 55 100 45 85 100 100 100 100 92 83 100 100 99 100 88 44 100 100
100 100 100 100 100 100 100 100 100 100 100 100 100 100 98 100 100 99 100 37 68 45 57 84 98 100 16 62 98 100 36 100 100 100 100 100 100 100 100 100 100 100 100 98 100 100 100
100 100 100 100 100 100 100 100 100 100 100 100 100 100 58 100 100 86 100 23 5 5 5 5 29 89 96 27 94 20 99 100 65 100 100 100 100 100 100 100 100 100 100 90 63 100 100
100 100 100 100 100 100 100 100 100 100 100 100 100 100 100 51 100 100 66 22 5 5 3 5 5 4 39 5 63 5 5 99 100 100 100 100 100 100 100 100 100 100 100 100 58 91 100
100 100 100 100 100 100 100 100 100 100 100 100 100 100 100 100 12 37 100 83 46 5 3 0 0 0 1 5 24 5 10 100 100 100 100 100 100 100 100 100 100 100 100 100 89 26 100
100 100 100 100 100 100 100 100 100 100 100 100 100 100 99 99 100 100 82 5 33 66 13 1 0 0 0 0 6 14 92 100 100 100 100 100 100 100 100 100 100 100 100 100 96 48 40
100 100 100 100 100 100 99 100 100 100 100 100 100 100 96 6 100 100 100 25 5 5 4 0 0 0 2 0 0 0 68 100 100 100 100 100 100 100 100 100 100 100 100 100 100 100 100
100 100 100 100 100 100 100 100 100 100 100 100 100 88 100 100 100 94 68 5 5 5 2 82 5 0 0 0 0 0 0 61 92 100 100 100 100 100 100 100 100 99 100 100 100 98 99
100 100 100 91 75 84 100 100 100 100 100 100 100 100 100 100 17 46 9 22 35 80 4 4 6 3 35 100 20 5 0 0 13 100 100 100 100 100 100 100 100 94 100 100 100 100 100
74 64 84 100 100 85 98 100 100 100 100 100 100 100 100 100 40 11 5 39 96 5 6 5 1 5 88 100 40 46 10 6 31 100 100 100 100 100 100 100 100 100 100 100 100 100 100
100 100 100 100 100 100 100 99 100 100 100 100 100 100 100 100 93 99 100 100 98 6 88 0 0 4 46 100 100 16 6 2 100 100 100 100 100 100 100 100 100 100 100 100 88 31 100
100 98 80 92 93 100 100 100 99 48 52 94 100 100 100 100 100 100 57 28 56 99 43 97 26 94 79 12 66 5 48 5 72 100 100 100 100 100 100 96 88 100 100 100 68 72 100
100 100 82 64 38 12 52 77 98 58 87 100 100 100 100 100 100 100 82 41 100 100 100 79 100 86 75 18 44 9 5 21 46 98 100 69 100 100 100 66 9 34 100 100 64 44 100
5 5 24 19 66 96 46 57 38 100 100 100 100 100 100 100 100 100 100 100 100 100 100 100 79 97 0 2 24 50 99 46 30 100 100 100 100 100 100 100 74 100 100 100 100 100 100

GFSGBSN_prec_cloud_051.txt.gz
Cloud_Cover
100 100 35 82 48 16 0 0 1 1 4 23 84 100 100 100 100 100 100 100 100 100 86 45 96 100 100 100 100 40 5 5 10 0 5 42 7 6 7 100 16 81 46 0 0 0 0
64 29 3 2 36 52 3 0 0 1 5 75 96 69 93 100 100 100 100 100 68 100 100 99 60 100 100 100 100 100 60 5 80 5 2 43 5 3 86 100 100 100 5 1 2 0 0
100 8 5 0 0 2 2 0 2 9 50 10 64 100 96 100 100 100 100 100 98 94 75 74 13 100 100 100 100 100 83 0 100 43 5 5 5 29 74 100 100 43 77 5 0 2 2
100 99 54 4 5 16 0 42 80 15 88 81 50 100 100 100 100 100 100 100 100 37 100 44 53 100 100 100 100 100 35 12 100 19 5 6 5 12 56 100 100 100 18 2 3 6 4
100 100 100 100 13 27 6 3 100 90 100 100 100 100 100 100 100 100 100 100 99 5 100 77 85 99 100 100 100 100 100 88 100 100 5 21 37 59 100 99 100 100 49 4 5 5 5
100 100 100 100 100 10 45 41 22 100 100 100 100 100 100 100 100 100 100 100 100 23 72 47 99 100 100 100 100 100 100 70 100 100 97 62 8 99 94 45 91 23 6 5 5 5 5
100 100 100 69 19 84 100 94 99 100 100 100 100 100 100 100 100 100 100 100 100 73 99 46 87 100 100 100 100 100 100 100 100 100 100 5 85 100 100 100 99 24 14 5 5 52 42
100 100 100 88 99 61 87 100 100 100 100 100 100 100 100 100 100 100 100 100 100 100 79 57 100 100 100 98 100 100 100 100 100 100 100 99 99 100 100 100 15 5 5 5 7 53 99
100 100 100 79 5 62 43 100 100 100 100 100 100 100 100 100 100 100 100 90 98 100 99 100 100 100 100 98 100 100 100 100 100 100 100 99 17 96 77 66 96 64 7 5 69 98 100
100 100 100 82 5 6 100 81 100 100 100 100 100 100 100 100 100 100 100 100 100 100 100 100 94 93 100 99 100 100 84 100 100 100 100 99 6 66 32 74 20 79 30 13 67 61 100
100 100 100 100 5 5 5 93 94 98 100 100 100 100 100 100 100 100 100 100 100 100 96 100 100 100 100 86 100 100 98 8 44 100 100 100 14 2 15 87 5 82 5 9 10 48 96
100 100 100 100 54 15 5 5 6 9 76 100 100 100 100 98 100 100 100 100 96 98 100 100 100 100 100 100 100 100 98 94 92 94 100 100 100 58 100 28 5 35 6 27 3 58 6
100 100 100 59 5 5 4 5 5 10 6 98 100 100 100 100 97 100 100 100 100 97 100 100 98 100 100 100 100 100 100 100 100 96 100 100 100 80 36 70 60 80 2 5 54 80 5
100 100 93 5 5 5 5 5 7 51 5 5 33 100 100 100 100 100 98 77 100 90 100 100 100 100 100 100 100 100 89 100 100 100 100 100 100 100 100 100 12 4 43 5 5 94 5
100 100 100 56 5 5 7 6 100 82 5 46 45 100 100 100 100 83 100 100 100 100 100 100 100 100 100 100 100 100 100 100 100 100 100 100 100 100 100 58 5 5 5 5 4 62 27
100 100 64 5 5 5 5 6 66 48 11 91 94 100 100 79 98 100 100 100 100 100 62 100 100 100 100 100 100 100 100 100 100 100 100 100 100 100 100 68 5 5 17 5 5 5 20
94 92 21 5 5 5 7 61 53 100 93 98 100 100 100 100 100 100 100 100 100 100 100 68 100 100 100 100 100 100 100 100 100 100 100 100 100 100 91 4 60 84 48 14 5 5 46
5 5 29 4 1 5 12 92 100 100 100 100 100 100 100 73 100 100 100 100 100 100 100 100 99 100 100 98 100 100 100 100 100 100 100 100 100 100 71 100 32 5 36 57 11 17 99
5 5 5 1 3 5 6 100 100 100 100 100 100 100 100 99 100 100 100 100 100 100 100 100 100 100 100 100 71 100 100 100 100 100 100 100 100 100 100 88 26 83 100 92 74 5 99
5 5 5 1 2 23 56 100 100 100 100 100 100 100 100 100 63 69 100 100 98 100 100 100 100 100 100 100 100 100 100 100 100 100 100 100 100 100 100 100 93 76 100 95 46 5 56
5 5 5 5 5 12 100 100 100 100 100 100 100 100 97 100 100 100 99 100 100 100 72 100 100 100 100 100 100 100 100 100 100 100 100 100 100 100 100 100 100 100 100 99 57 36 56
100 100 74 2 96 93 100 100 100 100 100 100 100 100 100 100 100 100 100 69 100 100 100 85 41 97 79 100 100 100 100 100 100 100 100 100 100 100 100 100 100 99 100 100 100 91 45
100 100 100 100 100 100 100 100 100 100 100 100 100 99 100 100 97 100 100 100 98 100 79 5 5 5 5 64 41 73 98 100 100 100 62 14 65 100 100 100 100 100 100 100 100 100 100
100 100 100 100 100 100 100 100 100 100 100 100 100 100 100 100 100 100 99 100 100 100 90 100 86 22 5 5 5 4 5 5 12 65 29 90 99 100 100 100 100 100 100 100 100 100 100
100 100 100 100 100 100 100 100 100 100 100 100 100 100 100 100 100 100 100 100 100 100 98 99 17 100 68 87 46 16 4 1 0 0 2 2 8 89 100 100 16 98 100 100 100 88 97
100 100 100 100 100 100 100 100 100 100 100 100 100 100 100 100 100 100 100 100 100 100 100 100 100 100 62 100 100 100 11 4 10 92 54 11 5 45 92 61 37 85 100 100 100 78 66
100 100 100 100 100 100 100 100 100 100 100 100 100 100 100 100 100 100 100 100 99 100 100 100 100 80 32 54 100 100 97 15 2 94 94 93 96 100 56 32 4 100 100 100 95 20 99
100 93 99 100 100 100 100 100 100 100 100 100 100 100 100 100 100 100 100 99 100 85 58 100 100 53 22 5 24 84 91 42 2 0 5 5 92 86 100 89 65 100 100 97 23 90 45
76 100 90 99 100 100 100 100 100 100 100 100 100 100 100 100 100 100 81 98 72 100 100 100 100 95 95 87 14 5 10 36 5 4 1 4 2 14 7 53 100 100 100 100 100 100 97

GFSGBSN_prec_cloud_054.txt.gz
Cloud_Cover
99 77 100 100 100 52 87 33 58 49 2 0 0 0 0 5 76 7 54 100 100 100 100 100 100 100 100 100 100 94 79 100 51 11 5 0 5 0 1 5 5 2 32 100 96 5 2
100 100 92 17 5 43 8 7 7 0 0 0 0 0 0 14 96 84 15 100 100 100 100 100 93 100 100 100 100 16 100 100 100 7 5 5 5 4 5 2 2 59 85 97 26 5 0
100 100 100 86 59 10 5 2 0 0 0 0 0 0 0 5 37 78 59 100 100 100 100 100 100 100 100 100 100 94 100 100 100 42 5 0 48 5 0 2 4 86 100 70 4 5 0
100 100 100 100 16 6 4 4 0 0 0 0 0 0 8 6 37 45 57 61 100 100 100 100 100 100 100 100 100 100 83 100 97 97 4 83 95 4 5 5 4 91 100 81 5 5 0
100 100 100 100 100 85 12 1 0 0 5 1 0 2 28 49 84 94 79 79 100 100 100 100 100 100 100 100 100 100 100 100 98 62 30 18 100 5 10 5 8 6 93 5 5 4 3
100 100 100 100 100 69 91 11 37 5 5 5 5 85 22 92 100 100 98 100 100 100 100 100 100 100 100 100 100 100 100 100 100 67 26 100 100 14 34 98 14 99 16 16 5 2 5
100 100 100 100 100 41 5 5 0 1 5 5 26 38 100 100 100 100 100 100 100 100 100 100 100 100 100 100 100 100 100 100 100 100 89 100 100 100 100 99 54 100 54 79 5 5 5
100 100 100 100 100 84 30 14 5 0 5 5 21 86 76 100 93 100 100 100 100 100 100 100 100 100 100 100 98 100 100 100 100 100 100 100 100 100 100 46 75 96 19 17 11 5 20
100 100 84 100 100 88 11 6 5 1 4 5 40 100 100 100 100 100 100 100 100 100 100 100 100 100 100 96 97 100 100 100 100 100 100 100 100 100 67 87 100 50 5 5 98 7 53
100 100 58 100 100 97 14 6 3 0 4 5 35 100 100 100 79 96 97 100 100 100 100 100 90 100 100 33 99 100 95 100 100 100 100 100 100 100 100 100 68 42 78 39 21 12 5
100 100 100 100 100 100 100 20 0 0 4 4 6 82 100 100 76 89 100 67 96 100 100 100 100 100 100 100 96 100 100 100 100 100 100 97 100 100 99 100 23 43 84 5 26 5 5
100 100 100 100 89 100 18 5 0 3 30 4 5 41 100 100 100 30 100 24 95 98 100 100 100 100 100 100 100 100 100 100 100 100 100 44 100 100 100 100 100 97 23 5 2 4 94
100 100 100 100 100 79 5 5 2 0 2 4 3 5 19 100 100 42 44 100 87 96 100 100 100 100 100 100 100 100 100 100 100 100 100 100 100 100 100 100 100 99 5 5 32 74 20
100 100 100 100 100 59 5 5 5 5 5 5 5 9 5 74 100 100 97 100 100 62 100 100 100 100 100 100 100 100 100 100 100 84 88 100 100 100 100 100 100 100 9 46 100 32 37
100 100 100 100 100 100 5 6 0 5 5 5 5 5 16 53 100 100 100 100 96 5 96 89 100 100 100 100 100 100 100 100 100 100 100 100 100 100 100 100 100 100 59 100 86 100 6
100 100 100 100 100 100 5 5 4 5 5 5 32 38 7 5 100 100 100 98 30 72 76 100 78 100 100 100 100 100 100 100 100 100 100 100 100 100 100 94 65 98 100 100 30 62 17
100 100 100 100 100 85 5 5 3 5 6 100 53 86 15 5 97 100 100 99 75 100 100 100 98 89 100 100 100 100 100 100 100 100 81 99 100 100 100 100 100 100 100 100 100 14 5
100 100 45 18 40 50 5 5 5 5 20 54 100 100 47 80 100 100 100 99 56 100 100 100 100 99 100 100 100 100 100 72 100 100 100 100 39 100 100 100 100 100 100 100 100 66 42
100 76 45 32 5 80 5 4 5 5 100 99 100 100 94 100 100 100 100 95 56 89 100 100 100 100 100 100 100 100 99 99 100 100 100 82 90 100 100 100 100 100 100 100 100 86 6
72 62 75 71 6 9 11 5 5 5 96 100 100 100 100 100 100 92 100 91 92 5 31 100 100 100 100 100 92 100 100 100 100 100 100 100 93 100 100 100 99 100 100 100 98 42 94
38 5 3 4 4 2 3 5 5 5 98 100 100 100 98 100 100 100 81 83 100 70 26 25 100 100 100 100 93 67 100 100 100 100 100 93 100 97 100 100 100 78 100 93 42 82 47
75 95 42 93 100 100 92 0 5 5 100 100 100 100 100 100 43 100 100 86 94 91 100 94 23 83 100 100 100 100 100 100 100 100 100 100 99 100 100 100 100 100 100 5 7 5 74
13 97 100 100 100 100 100 63 2 7 100 100 100 100 100 94 100 100 88 60 100 100 100 100 100 35 33 100 100 100 100 100 100 97 100 100 100 100 100 100 100 100 100 20 58 94 61
100 100 100 100 100 100 100 100 75 12 100 100 100 100 100 100 98 93 100 100 100 100 100 100 100 100 94 94 99 100 100 100 100 100 100 100 100 100 100 100 100 100 100 100 40 90 100
100 100 100 100 100 100 100 100 100 100 100 100 100 100 100 100 100 100 100 100 100 100 100 100 100 100 95 97 79 100 100 100 100 100 100 100 100 100 100 100 100 100 100 100 100 100 100
100 100 100 100 100 100 100 100 100 100 100 100 100 100 100 100 100 100 100 100 100 100 100 100 100 100 100 99 98 100 72 12 8 70 86 74 100 100 100 100 100 100 100 100 100 100 100
100 100 100 100 100 100 100 100 100 100 100 100 100 100 100 100 100 100 100 100 100 100 100 100 100 100 100 100 100 100 99 87 4 84 92 40 61 53 100 100 73 100 100 100 100 74 100
100 100 100 100 100 100 100 100 100 100 100 100 100 100 100 100 100 100 100 100 100 100 100 100 100 100 100 85 98 88 65 8 20 5 25 41 31 88 97 100 31 2 2 15 64 8 20
100 100 94 100 100 100 100 100 100 100 100 100 100 100 100 100 100 100 100 100 100 100 100 100 100 100 100 69 18 21 5 26 5 5 0 4 2 5 2 4 0 0 0 4 27 5 32

GFSGBSN_prec_cloud_057.txt.gz
Cloud_Cover
100 100 100 100 100 100 100 100 100 100 100 84 5 5 2 1 0 0 0 0 21 32 91 8 9 100 100 100 100 100 100 100 100 100 4 5 3 0 5 5 3 0 11 7 36 100 13
100 100 100 100 100 100 100 100 100 100 100 100 60 5 0 0 0 0 0 0 5 5 51 14 12 96 100 100 100 100 100 100 100 100 28 5 5 1 4 4 5 0 4 45 100 67 15
100 100 100 100 100 100 100 100 100 100 47 10 3 0 0 0 0 0 0 0 1 5 7 100 93 100 100 100 100 100 100 100 100 100 100 36 5 5 5 2 5 3 0 64 100 34 100
100 100 100 100 100 100 100 100 98 6 4 1 0 0 0 0 0 0 0 78 1 5 91 27 88 100 100 100 100 100 100 100 100 100 92 100 52 6 5 1 5 5 3 19 100 26 65
100 100 100 100 100 100 100 100 87 93 21 5 1 1 0 0 0 0 0 3 4 28 87 89 58 100 100 100 100 100 100 100 100 100 28 100 82 98 8 5 5 5 5 59 100 53 5
100 100 79 100 100 100 100 19 6 5 2 5 5 5 2 0 1 0 0 3 94 76 100 41 91 100 100 100 100 100 100 100 100 100 61 100 100 100 22 6 25 50 74 99 53 5 5
100 100 100 100 100 100 100 84 20 5 16 14 30 5 0 0 5 5 1 5 100 100 100 100 100 100 100 100 100 100 100 100 100 86 81 100 100 100 11 28 27 96 100 62 5 29 10
100 100 100 100 100 100 100 66 34 59 33 30 5 5 0 4 5 5 1 36 100 100 100 100 100 100 100 100 100 100 100 100 100 100 100 10 99 100 5 5 73 100 84 28 5 89 99
100 100 100 100 100 100 100 99 92 100 96 15 4 0 0 5 5 5 16 80 83 100 100 100 100 100 100 100 100 100 100 100 100 99 94 92 100 100 5 6 100 100 76 49 28 96 100
100 100 100 100 100 100 100 78 68 96 92 9 0 0 4 5 5 5 24 45 100 100 100 100 100 100 100 100 100 100 100 100 100 96 100 84 100 100 92 62 100 100 12 90 5 20 46
100 100 100 100 100 100 100 83 100 71 5 5 0 0 4 5 58 28 14 11 100 100 100 100 100 100 100 100 100 100 86 100 100 100 100 100 100 100 100 99 99 100 100 36 5 5 5
99 100 100 100 100 100 100 100 100 97 98 9 0 0 5 5 93 42 12 5 100 100 100 100 100 100 100 100 100 100 100 100 100 100 100 100 100 100 100 97 64 100 84 100 6 5 54
100 100 100 100 100 100 100 100 100 100 88 11 5 5 5 16 85 100 40 5 66 100 100 100 100 100 100 100 100 100 100 100 100 100 82 100 100 100 100 100 92 100 100 100 5 5 30
100 100 100 100 100 100 100 100 100 100 14 5 5 47 5 5 25 99 83 63 97 99 100 100 100 100 100 100 100 100 100 100 100 100 100 100 100 100 100 100 100 100 100 46 56 12 70
100 100 100 100 100 100 100 100 100 100 40 5 2 5 11 5 18 76 100 100 5 13 85 100 100 100 100 100 100 100 100 100 100 100 100 100 100 100 100 100 100 62 98 100 97 90 67
100 100 100 100 100 100 100 100 100 100 100 25 35 52 4 0 14 96 100 94 30 78 12 100 100 100 100 100 100 100 100 100 100 100 100 100 100 93 100 100 100 14 90 89 42 34 100
100 100 100 100 100 100 100 100 100 100 100 67 50 93 2 3 88 100 100 100 96 16 97 100 100 100 100 100 100 100 100 100 100 100 100 100 98 100 100 100 94 100 70 11 11 9 87
100 100 100 100 100 100 88 58 27 9 49 9 100 99 76 55 100 100 100 100 7 5 7 16 100 100 100 100 100 100 100 100 100 100 100 100 100 100 100 100 100 100 79 67 80 66 99
100 100 100 100 100 80 97 49 5 4 10 91 100 78 92 79 100 100 98 97 100 0 5 97 35 100 100 100 100 100 100 100 100 100 100 100 100 100 100 100 100 100 100 96 100 100 100
22 84 84 85 30 28 95 74 5 4 5 55 100 96 100 100 71 86 88 87 73 5 5 100 53 97 100 100 100 100 100 100 100 100 100 100 99 100 100 100 100 100 98 83 58 69 100
100 100 72 24 73 100 100 93 3 5 5 54 100 100 22 100 100 100 92 71 67 27 26 100 89 27 100 99 100 100 100 100 100 100 100 100 96 100 100 100 92 86 99 20 5 78 100
100 100 91 84 68 5 5 5 6 1 4 92 100 100 100 96 96 97 100 88 5 47 85 100 70 100 100 46 83 100 100 45 97 100 100 100 100 100 100 100 100 100 100 100 100 100 74
88 72 5 5 5 15 6 12 49 43 8 100 100 100 100 20 12 100 100 25 13 99 100 100 100 100 100 94 52 45 40 100 99 100 100 100 100 100 100 100 100 100 100 100 100 100 100
5 5 8 47 74 100 93 96 100 52 20 40 97 100 100 87 100 50 5 42 34 72 100 100 100 100 99 91 46 100 9 8 100 100 100 100 100 100 100 100 100 100 100 100 100 94 95
71 98 100 100 100 100 100 100 100 100 100 95 33 100 100 90 6 73 78 42 100 100 100 100 100 100 100 100 98 100 100 100 77 100 100 100 100 100 100 100 100 100 100 100 100 100 99
100 100 100 100 100 100 100 100 100 100 100 100 68 66 100 98 27 98 100 100 100 100 100 100 100 100 100 93 99 75 91 100 100 100 100 100 100 100 100 100 100 100 100 100 100 100 78
100 100 100 100 100 100 100 100 100 100 100 100 83 98 100 100 100 100 100 100 100 100 100 100 100 100 98 100 94 100 97 30 48 100 100 100 100 100 100 100 100 100 100 99 100 64 100
100 100 100 100 100 100 100 100 100 100 100 100 100 100 100 100 100 100 100 100 100 100 100 100 100 100 100 100 77 93 79 12 6 14 42 33 100 94 100 100 100 100 100 100 100 100 100
100 100 100 100 100 100 100 100 100 100 100 100 100 100 100 100 100 100 100 100 100 100 100 100 100 100 100 95 85 98 95 5 5 5 3 5 3 14 22 86 100 61 53 100 100 100 100

GFSGBSN_prec_cloud_063.txt.gz
Cloud_Cover
100 98 12 100 100 100 100 100 100 100 100 100 100 100 100 100 100 100 100 100 100 69 35 52 5 5 4 0 0 2 3 5 5 58 100 100 86 94 64 10 42 100 2 0 5 0 5
91 100 100 100 100 100 100 100 100 100 100 100 92 38 100 100 100 100 100 100 95 100 87 70 5 2 0 0 0 0 5 30 6 91 49 100 100 100 100 14 61 100 0 0 2 5 5
100 100 99 74 96 100 94 100 100 100 100 100 100 100 100 100 93 100 100 100 100 97 77 5 38 3 0 0 0 0 3 98 79 99 99 39 100 79 100 22 100 100 1 0 5 1 5
100 100 100 95 100 92 78 98 99 100 100 100 100 100 100 100 100 100 95 68 8 56 46 4 7 0 0 0 0 0 3 53 86 100 100 98 100 100 100 98 100 100 1 1 4 8 11
100 100 100 100 100 100 100 97 37 60 100 100 87 75 100 100 87 98 100 67 66 17 0 2 5 0 0 0 0 2 2 5 79 100 100 81 100 96 99 100 100 100 84 1 8 37 72
100 100 100 100 100 100 99 33 62 88 59 14 17 94 99 99 100 100 100 86 83 5 4 0 0 1 0 0 0 5 5 5 100 100 100 100 100 100 100 100 100 100 96 4 47 94 69
100 100 100 100 100 94 100 98 50 62 10 69 13 27 96 72 100 100 39 5 5 5 2 0 0 0 0 0 47 24 5 57 100 100 100 100 100 97 100 100 100 100 100 100 69 100 45
100 100 100 99 96 60 100 81 78 56 35 8 39 63 54 100 54 100 79 28 6 31 34 0 0 0 0 7 100 97 34 64 100 100 100 100 100 100 100 100 100 76 76 81 94 100 10
100 100 100 96 89 66 95 100 100 100 100 63 100 5 93 100 83 100 15 36 24 100 29 2 0 0 0 30 100 100 97 100 100 100 100 100 100 100 100 100 100 99 97 100 100 100 82
100 100 100 90 100 100 100 100 100 100 100 100 90 5 8 6 34 63 37 8 57 100 41 0 0 0 0 5 100 100 100 100 100 100 100 100 100 100 100 100 100 100 100 100 100 100 98
100 100 100 100 100 100 100 100 100 100 100 99 6 24 6 42 12 51 68 35 73 100 6 0 0 0 0 57 63 100 100 100 100 100 100 100 100 100 100 100 100 100 100 100 100 100 40
100 100 100 100 100 96 100 100 100 100 51 84 22 77 22 14 25 75 57 48 100 93 2 0 0 0 0 65 75 100 100 100 100 100 100 100 100 100 100 100 100 100 99 100 100 100 77
100 100 100 31 46 66 69 55 32 100 100 58 23 100 94 100 63 98 68 43 47 3 0 0 0 0 0 16 100 100 100 100 100 100 100 100 100 100 100 100 100 100 100 100 100 100 100
100 100 100 100 100 100 100 100 100 100 99 77 100 100 100 100 100 99 88 61 20 1 5 5 0 0 0 10 100 100 100 100 100 100 100 100 100 100 100 100 100 100 100 100 100 100 100
99 58 73 83 99 91 67 40 96 100 83 76 99 62 94 100 100 100 97 94 82 5 2 96 4 0 0 71 96 100 100 100 100 100 100 100 100 100 100 100 100 100 99 100 100 100 100
5 90 75 90 83 96 100 70 28 100 94 100 80 99 85 96 100 93 100 32 10 5 5 5 5 0 0 100 18 100 100 100 100 100 100 100 100 100 100 100 100 100 100 100 100 100 100
5 51 85 31 98 99 97 27 99 88 100 90 52 100 65 95 70 100 88 43 100 5 5 5 1 4 0 64 56 74 97 100 100 100 100 100 100 100 100 100 100 100 100 100 100 100 100
10 51 48 31 63 65 5 90 32 97 100 88 84 98 52 10 78 76 78 93 75 50 5 5 3 5 5 9 100 79 99 100 100 100 100 100 100 100 100 100 100 100 100 100 100 100 100
40 6 7 5 5 13 32 100 50 15 100 98 81 78 23 87 98 98 98 86 44 30 5 5 5 5 8 9 84 100 100 100 100 100 100 100 100 100 100 100 100 100 100 100 100 100 100
72 26 5 42 50 83 93 58 93 69 100 100 96 97 86 29 49 87 100 97 100 70 27 6 29 13 43 39 57 98 100 100 100 100 100 100 100 100 100 100 100 100 100 100 100 100 100
83 18 7 23 72 5 23 11 17 41 52 100 94 67 100 96 90 92 95 100 100 100 89 90 100 75 100 99 90 100 100 100 100 100 100 100 100 100 100 100 100 100 100 100 100 100 100
67 100 33 24 32 91 70 100 92 95 58 100 80 93 33 74 99 100 100 100 100 100 100 100 100 100 100 100 100 100 100 99 100 100 100 100 100 100 100 100 100 100 100 100 100 100 100
30 5 5 54 64 32 62 100 99 100 100 100 60 80 76 100 100 100 99 76 86 100 100 100 100 100 100 100 98 77 68 87 99 100 100 100 100 100 100 100 100 100 100 100 100 100 100
94 53 86 8 12 46 45 100 100 100 100 95 98 92 100 48 90 100 100 94 100 100 100 100 98 94 100 40 10 60 80 92 96 94 100 100 100 100 100 100 100 100 100 100 100 100 100
100 100 100 100 86 5 5 100 100 100 98 86 74 99 85 98 100 100 100 63 51 100 92 99 100 100 44 28 20 88 84 100 56 95 89 100 100 100 100 100 100 100 100 100 100 100 100
100 100 100 100 100 100 9 29 50 100 57 13 5 84 99 100 72 100 100 100 100 100 96 100 89 100 32 100 100 99 100 77 90 92 78 100 100 100 100 100 100 100 100 100 100 100 100
100 100 100 100 100 100 100 68 27 7 7 43 18 17 96 100 6 91 98 100 99 100 95 100 100 98 100 100 98 99 100 100 100 100 94 94 100 100 100 100 100 100 82 100 100 100 100
86 94 97 100 100 100 100 97 98 6 21 83 100 91 99 97 12 35 99 67 75 95 96 100 100 100 100 100 96 100 100 96 100 100 100 73 100 100 100 100 100 100 100 100 100 100 100
99 99 98 91 100 100 100 99 100 98 43 97 100 100 100 100 78 87 42 90 99 100 100 100 100 100 78 91 100 100 100 100 99 100 100 100 100 100 100 100 100 100 100 94 100 100 100

GFSGBSN_prec_cloud_069.txt.gz
Cloud_Cover
100 100 100 100 100 100 100 100 100 100 100 100 53 100 100 100 100 100 100 91 100 99 100 100 100 100 41 46 100 100 100 100 100 100 97 58 2 0 5 1 0 0 0 0 99 100 34
100 100 100 100 100 100 100 100 100 100 100 100 100 100 99 100 100 100 100 99 100 98 100 100 100 100 100 68 32 71 100 78 40 13 6 5 5 3 5 3 0 0 1 60 99 100 82
100 99 100 100 100 100 100 100 100 100 100 100 100 100 90 98 100 100 97 100 92 98 96 5 60 98 100 100 100 98 100 100 86 100 100 1 0 0 2 4 5 2 1 34 100 38 43
100 100 100 100 100 100 100 100 100 100 100 100 100 100 100 100 82 100 45 14 43 93 71 13 18 43 19 57 100 97 98 99 90 78 25 2 0 0 6 11 3 0 5 5 99 100 100
99 100 100 100 100 100 100 100 100 100 100 100 100 100 99 56 100 100 83 59 5 5 40 80 76 22 9 4 2 30 19 62 36 4 0 0 0 1 75 100 85 78 64 32 100 100 100
100 100 100 100 100 100 100 100 100 100 100 100 100 100 100 100 100 100 100 100 100 100 16 11 7 96 4 4 4 0 4 4 4 0 0 0 2 4 100 98 8 95 69 88 100 100 100
100 100 100 100 100 100 100 100 100 100 100 100 100 100 100 100 100 100 100 100 100 100 100 5 0 9 4 48 16 3 5 10 2 0 0 0 5 5 100 100 100 100 59 74 100 100 100
100 100 100 100 100 100 100 100 100 100 100 100 100 100 100 100 88 100 100 100 100 100 100 89 35 36 52 98 74 5 6 85 12 0 4 3 5 5 60 97 49 97 86 82 100 100 86
100 100 100 100 100 100 100 100 100 100 100 100 100 100 100 100 100 100 100 100 100 87 85 98 100 97 82 24 5 6 5 6 5 6 12 82 9 48 71 72 94 99 100 100 100 100 40
100 100 100 100 100 100 100 100 100 100 100 100 100 100 100 100 100 100 100 100 99 100 100 88 100 100 100 96 42 9 1 52 97 4 5 5 57 93 62 63 100 100 100 100 100 100 80
100 100 100 99 100 100 100 100 100 100 100 100 100 100 100 100 100 100 100 100 100 100 100 100 100 100 69 5 8 36 0 3 6 3 3 0 94 67 74 100 100 100 100 100 99 21 99
100 100 95 45 65 62 99 89 100 93 100 100 100 100 100 100 100 100 100 100 100 100 100 82 7 19 5 0 4 5 2 9 12 5 5 5 88 98 100 100 100 100 73 100 98 100 64
100 100 100 100 100 100 100 96 38 92 68 41 22 100 100 100 100 100 100 100 77 100 64 6 5 83 6 0 4 5 2 4 4 4 4 13 100 100 100 100 100 100 90 100 100 100 100
100 100 100 100 100 100 100 100 100 100 100 100 100 100 100 100 100 100 100 98 100 100 100 100 15 5 6 5 5 1 5 39 0 0 0 100 100 96 100 100 100 100 100 100 100 100 100
100 91 5 65 100 47 92 46 89 54 70 5 5 39 95 28 80 100 80 100 87 100 100 100 100 100 100 95 12 96 100 71 35 5 3 100 100 98 94 100 100 100 100 100 100 100 100
100 61 5 9 20 18 5 5 4 12 31 5 5 5 4 0 6 65 100 51 38 76 96 72 100 100 100 94 74 37 38 32 80 84 34 100 100 100 92 100 100 100 100 100 100 100 100
12 53 5 5 5 5 5 5 22 5 5 12 5 39 0 11 94 95 89 35 4 2 100 99 51 19 11 99 94 93 98 28 44 86 100 100 100 100 100 100 100 100 100 100 100 100 100
5 24 5 5 5 5 48 5 5 5 2 5 7 86 2 34 88 100 84 2 5 2 100 92 90 48 84 98 38 59 81 43 55 45 5 100 100 100 100 100 100 100 100 100 100 100 100
5 5 5 44 26 22 5 5 4 5 5 31 99 96 0 5 100 100 53 5 1 0 85 99 98 95 100 100 75 63 90 18 5 5 4 100 100 100 100 100 100 100 100 100 100 100 100
51 29 98 12 5 5 5 85 97 44 75 75 100 94 5 5 5 96 100 5 5 2 0 100 100 100 100 92 94 95 100 88 100 49 3 100 100 100 100 100 100 100 100 100 100 100 100
5 5 10 94 92 88 14 5 21 70 98 99 100 67 38 83 75 42 100 76 100 64 5 75 100 100 100 100 100 100 100 96 96 23 5 100 100 100 100 100 100 100 100 100 100 100 100
5 94 22 5 5 34 66 29 5 10 62 100 94 96 6 93 21 100 86 5 100 100 100 23 100 100 100 100 100 100 99 92 5 5 6 100 100 100 100 100 100 100 100 100 100 100 100
37 5 12 29 5 100 70 5 24 68 99 70 63 50 99 61 94 100 100 14 8 98 100 98 100 100 100 100 100 100 100 83 83 5 10 100 100 100 100 100 100 100 100 100 100 100 100
11 5 73 100 85 100 84 99 100 67 90 100 100 73 98 62 100 100 100 100 100 19 39 87 96 98 88 98 100 99 96 35 4 0 3 96 100 100 100 100 100 100 100 100 100 100 100
5 5 9 99 100 93 100 100 100 100 100 100 44 100 100 62 100 100 100 100 100 100 100 5 5 17 65 94 18 5 3 0 0 0 0 2 100 100 100 100 100 100 100 100 100 100 100
95 25 5 91 100 100 100 100 100 100 100 100 9 100 100 100 96 100 100 99 100 88 100 87 6 99 54 100 72 5 4 0 4 6 0 0 49 100 100 100 100 100 100 100 100 100 100
5 5 68 96 100 76 82 100 100 100 100 74 89 82 100 100 98 65 84 97 100 100 100 87 54 45 6 99 31 5 5 0 3 39 99 69 5 91 100 100 100 100 100 100 100 100 100
5 83 100 100 99 73 100 100 100 100 100 88 99 7 40 71 99 5 4 5 74 88 100 100 100 95 98 51 9 5 5 1 5 88 100 99 89 89 100 95 100 100 100 100 100 100 100
89 100 100 90 68 12 84 100 100 100 100 39 59 5 17 94 45 57 15 5 36 74 83 100 100 100 98 71 43 65 95 100 100 100 100 100 90 82 7 61 100 100 100 100 100 100 100